Observation data for Hefner on 02/14/2020      Previous  Date  Next       Current Mesonet Observations  Soil Data  Daily Summary Page  Observations in Plain Language
KHE1 140600Z 06008KT M02/M07 A304 RMK A01 T10221066  RH  072%=      5-min Rain = 0
KHE1 140601Z 06009KT M02/M07 A304 RMK A01 T10221067  RH  071%=      5-min Rain = 0
KHE1 140602Z 06009KT M02/M07 A304 RMK A01 T10221068  RH  071%=      5-min Rain = 0
KHE1 140603Z 06010KT M02/M07 A304 RMK A01 T10221068  RH  071%=      5-min Rain = 0
KHE1 140604Z 06009KT M02/M07 A304 RMK A01 T10221070  RH  070%=      5-min Rain = 0
KHE1 140605Z 06009KT M02/M07 A304 RMK A01 T10221069  RH  070%=      5-min Rain = 0
KHE1 140606Z 06010KT M02/M07 A304 RMK A01 T10221068  RH  071%=      5-min Rain = 0
KHE1 140607Z 06009KT M02/M07 A3039 RMK A01 T10221069  RH  070%=      5-min Rain = 0
KHE1 140608Z 06009KT M02/M07 A304 RMK A01 T10221069  RH  070%=      5-min Rain = 0
KHE1 140609Z 06009KT M02/M07 A304 RMK A01 T10221068  RH  071%=      5-min Rain = 0
KHE1 140610Z 06009KT M02/M07 A304 RMK A01 T10211067  RH  071%=      5-min Rain = 0
KHE1 140611Z 06011KT M02/M07 A304 RMK A01 T10211068  RH  070%=      5-min Rain = 0
KHE1 140612Z 06011KT M02/M07 A304 RMK A01 T10211071  RH  069%=      5-min Rain = 0
KHE1 140613Z 06010KT M02/M07 A304 RMK A01 T10211071  RH  069%=      5-min Rain = 0
KHE1 140614Z 06010KT M02/M07 A304 RMK A01 T10211069  RH  070%=      5-min Rain = 0
KHE1 140615Z 06010KT M02/M07 A3039 RMK A01 T10211069  RH  070%=      5-min Rain = 0
KHE1 140616Z 06010KT M02/M07 A3039 RMK A01 T10211070  RH  069%=      5-min Rain = 0
KHE1 140617Z 06010KT M02/M07 A3039 RMK A01 T10211069  RH  070%=      5-min Rain = 0
KHE1 140618Z 06010KT M02/M07 A3039 RMK A01 T10211070  RH  069%=      5-min Rain = 0
KHE1 140619Z 06009KT M02/M07 A304 RMK A01 T10211068  RH  070%=      5-min Rain = 0
KHE1 140620Z 05010KT M02/M07 A304 RMK A01 T10211067  RH  071%=      5-min Rain = 0
KHE1 140621Z 06009KT M02/M07 A304 RMK A01 T10211067  RH  071%=      5-min Rain = 0
KHE1 140622Z 05009KT M02/M07 A304 RMK A01 T10211067  RH  071%=      5-min Rain = 0
KHE1 140623Z 05010KT M02/M07 A304 RMK A01 T10211069  RH  070%=      5-min Rain = 0
KHE1 140624Z 05009KT M02/M07 A304 RMK A01 T10211069  RH  070%=      5-min Rain = 0
KHE1 140625Z 05010KT M02/M07 A304 RMK A01 T10221068  RH  070%=      5-min Rain = 0
KHE1 140626Z 05008KT M02/M07 A304 RMK A01 T10221067  RH  071%=      5-min Rain = 0
KHE1 140627Z 05009KT M02/M07 A3039 RMK A01 T10221065  RH  072%=      5-min Rain = 0
KHE1 140628Z 06011KT M02/M07 A3039 RMK A01 T10221067  RH  071%=      5-min Rain = 0
KHE1 140629Z 06010KT M02/M07 A3039 RMK A01 T10221069  RH  070%=      5-min Rain = 0
KHE1 140630Z 06010KT M02/M07 A3039 RMK A01 T10221069  RH  070%=      5-min Rain = 0
KHE1 140631Z 06010KT M02/M07 A3039 RMK A01 T10221069  RH  070%=      5-min Rain = 0
KHE1 140632Z 05009KT M02/M07 A3039 RMK A01 T10221068  RH  071%=      5-min Rain = 0
KHE1 140633Z 05010KT M02/M07 A3039 RMK A01 T10221070  RH  070%=      5-min Rain = 0
KHE1 140634Z 06011KT M02/M07 A304 RMK A01 T10221071  RH  069%=      5-min Rain = 0
KHE1 140635Z 06010KT M02/M07 A304 RMK A01 T10221071  RH  069%=      5-min Rain = 0
KHE1 140636Z 06008KT M02/M07 A304 RMK A01 T10221070  RH  070%=      5-min Rain = 0
KHE1 140637Z 06008KT M02/M07 A304 RMK A01 T10221066  RH  072%=      5-min Rain = 0
KHE1 140638Z 06009KT M02/M07 A304 RMK A01 T10221065  RH  073%=      5-min Rain = 0
KHE1 140639Z 06010KT M02/M07 A304 RMK A01 T10221068  RH  071%=      5-min Rain = 0
KHE1 140640Z 06009KT M02/M07 A304 RMK A01 T10221070  RH  070%=      5-min Rain = 0
KHE1 140641Z 06009KT M02/M07 A304 RMK A01 T10221068  RH  071%=      5-min Rain = 0
KHE1 140642Z 06008KT M02/M07 A304 RMK A01 T10211067  RH  071%=      5-min Rain = 0
KHE1 140643Z 06007KT M02/M07 A304 RMK A01 T10221066  RH  072%=      5-min Rain = 0
KHE1 140644Z 07009KT M02/M07 A3039 RMK A01 T10221065  RH  072%=      5-min Rain = 0
KHE1 140645Z 07009KT M02/M07 A3039 RMK A01 T10221068  RH  071%=      5-min Rain = 0
KHE1 140646Z 07008KT M02/M07 A3039 RMK A01 T10221068  RH  070%=      5-min Rain = 0
KHE1 140647Z 06009KT M02/M07 A3039 RMK A01 T10221067  RH  071%=      5-min Rain = 0
KHE1 140648Z 06009KT M02/M07 A304 RMK A01 T10221068  RH  071%=      5-min Rain = 0
KHE1 140649Z 06010KT M02/M07 A304 RMK A01 T10221068  RH  070%=      5-min Rain = 0
KHE1 140650Z 06009KT M02/M07 A304 RMK A01 T10211069  RH  070%=      5-min Rain = 0
KHE1 140651Z 06008KT M02/M07 A304 RMK A01 T10221069  RH  070%=      5-min Rain = 0
KHE1 140652Z 06010KT M02/M07 A304 RMK A01 T10221067  RH  071%=      5-min Rain = 0
KHE1 140653Z 07009KT M02/M07 A304 RMK A01 T10221070  RH  070%=      5-min Rain = 0
KHE1 140654Z 06008KT M02/M07 A3039 RMK A01 T10221069  RH  070%=      5-min Rain = 0
KHE1 140655Z 06008KT M02/M07 A3039 RMK A01 T10221067  RH  071%=      5-min Rain = 0
KHE1 140656Z 06008KT M02/M07 A3039 RMK A01 T10211065  RH  072%=      5-min Rain = 0
KHE1 140657Z 06008KT M02/M07 A3039 RMK A01 T10211066  RH  071%=      5-min Rain = 0
KHE1 140658Z 06009KT M02/M07 A3039 RMK A01 T10211067  RH  071%=      5-min Rain = 0
KHE1 140659Z 06009KT M02/M07 A3039 RMK A01 T10221069  RH  070%=      5-min Rain = 0
KHE1 140700Z 06009KT M02/M07 A3039 RMK A01 T10221069  RH  070%=      5-min Rain = 0
KHE1 140701Z 06009KT M02/M07 A3039 RMK A01 T10221068  RH  071%=      5-min Rain = 0
KHE1 140702Z 06010KT M02/M07 A3039 RMK A01 T10221067  RH  071%=      5-min Rain = 0
KHE1 140703Z 06009KT M02/M07 A3039 RMK A01 T10221069  RH  070%=      5-min Rain = 0
KHE1 140704Z 06009KT M02/M07 A3039 RMK A01 T10221068  RH  071%=      5-min Rain = 0
KHE1 140705Z 06010KT M02/M07 A3039 RMK A01 T10231069  RH  070%=      5-min Rain = 0
KHE1 140706Z 06009KT M02/M07 A3039 RMK A01 T10231068  RH  071%=      5-min Rain = 0
KHE1 140707Z 06010KT M02/M07 A3039 RMK A01 T10231070  RH  070%=      5-min Rain = 0
KHE1 140708Z 06009KT M02/M07 A3039 RMK A01 T10221070  RH  070%=      5-min Rain = 0
KHE1 140709Z 06007KT M02/M07 A3039 RMK A01 T10231067  RH  072%=      5-min Rain = 0
KHE1 140710Z 06009KT M02/M07 A3039 RMK A01 T10231065  RH  073%=      5-min Rain = 0
KHE1 140711Z 06008KT M02/M07 A3039 RMK A01 T10241066  RH  073%=      5-min Rain = 0
KHE1 140712Z 06009KT M02/M06 A3039 RMK A01 T10241064  RH  073%=      5-min Rain = 0
KHE1 140713Z 06008KT M02/M07 A3039 RMK A01 T10241066  RH  073%=      5-min Rain = 0
KHE1 140714Z 06009KT M02/M07 A3039 RMK A01 T10241066  RH  073%=      5-min Rain = 0
KHE1 140715Z 06010KT M02/M07 A3039 RMK A01 T10241069  RH  071%=      5-min Rain = 0
KHE1 140716Z 06010KT M02/M07 A3039 RMK A01 T10241069  RH  071%=      5-min Rain = 0
KHE1 140717Z 06009KT M02/M07 A3039 RMK A01 T10241067  RH  072%=      5-min Rain = 0
KHE1 140718Z 07009KT M02/M07 A3039 RMK A01 T10241066  RH  073%=      5-min Rain = 0
KHE1 140719Z 07009KT M03/M07 A3039 RMK A01 T10251067  RH  072%=      5-min Rain = 0
KHE1 140720Z 07008KT M02/M07 A3039 RMK A01 T10241068  RH  072%=      5-min Rain = 0
KHE1 140721Z 06007KT M03/M07 A3039 RMK A01 T10251067  RH  073%=      5-min Rain = 0
KHE1 140722Z 06009KT M03/M07 A3039 RMK A01 T10251065  RH  074%=      5-min Rain = 0
KHE1 140723Z 07009KT M03/M07 A3039 RMK A01 T10251066  RH  073%=      5-min Rain = 0
KHE1 140724Z 07009KT M03/M07 A3039 RMK A01 T10251065  RH  073%=      5-min Rain = 0
KHE1 140725Z 07008KT M03/M07 A3039 RMK A01 T10251066  RH  073%=      5-min Rain = 0
KHE1 140726Z 07009KT M03/M07 A3039 RMK A01 T10251067  RH  073%=      5-min Rain = 0
KHE1 140727Z 07009KT M03/M07 A3039 RMK A01 T10251070  RH  072%=      5-min Rain = 0
KHE1 140728Z 06009KT M03/M07 A3039 RMK A01 T10251070  RH  071%=      5-min Rain = 0
KHE1 140729Z 06008KT M03/M07 A3039 RMK A01 T10251067  RH  073%=      5-min Rain = 0
KHE1 140730Z 07009KT M03/M07 A3039 RMK A01 T10251066  RH  074%=      5-min Rain = 0
KHE1 140731Z 07009KT M03/M07 A3039 RMK A01 T10261067  RH  073%=      5-min Rain = 0
KHE1 140732Z 06007KT M03/M07 A3039 RMK A01 T10261066  RH  074%=      5-min Rain = 0
KHE1 140733Z 06008KT M03/M06 A3039 RMK A01 T10261063  RH  076%=      5-min Rain = 0
KHE1 140734Z 06010KT M03/M07 A3039 RMK A01 T10261066  RH  074%=      5-min Rain = 0
KHE1 140735Z 06009KT M03/M07 A3039 RMK A01 T10261069  RH  072%=      5-min Rain = 0
KHE1 140736Z 06008KT M03/M07 A3039 RMK A01 T10261068  RH  073%=      5-min Rain = 0
KHE1 140737Z 06009KT M03/M07 A3039 RMK A01 T10271066  RH  074%=      5-min Rain = 0
KHE1 140738Z 06009KT M03/M07 A3039 RMK A01 T10271067  RH  074%=      5-min Rain = 0
KHE1 140739Z 06010KT M03/M07 A3039 RMK A01 T10261067  RH  074%=      5-min Rain = 0
KHE1 140740Z 06010KT M03/M07 A3039 RMK A01 T10271068  RH  073%=      5-min Rain = 0
KHE1 140741Z 06010KT M03/M07 A3039 RMK A01 T10271069  RH  073%=      5-min Rain = 0
KHE1 140742Z 06010KT M03/M07 A3039 RMK A01 T10271072  RH  071%=      5-min Rain = 0
KHE1 140743Z 06009KT M03/M07 A3039 RMK A01 T10271071  RH  071%=      5-min Rain = 0
KHE1 140744Z 06009KT M03/M07 A3039 RMK A01 T10271069  RH  073%=      5-min Rain = 0
KHE1 140745Z 07010KT M03/M07 A3039 RMK A01 T10271070  RH  072%=      5-min Rain = 0
KHE1 140746Z 06010KT M03/M07 A3039 RMK A01 T10271071  RH  071%=      5-min Rain = 0
KHE1 140747Z 07010KT M03/M07 A3039 RMK A01 T10271072  RH  071%=      5-min Rain = 0
KHE1 140748Z 07009KT M03/M07 A3039 RMK A01 T10271070  RH  072%=      5-min Rain = 0
KHE1 140749Z 07010KT M03/M07 A3039 RMK A01 T10271069  RH  073%=      5-min Rain = 0
KHE1 140750Z 07008KT M03/M07 A3039 RMK A01 T10271069  RH  073%=      5-min Rain = 0
KHE1 140751Z 07008KT M03/M07 A3039 RMK A01 T10271069  RH  073%=      5-min Rain = 0
KHE1 140752Z 06009KT M03/M07 A304 RMK A01 T10271068  RH  073%=      5-min Rain = 0
KHE1 140753Z 06009KT M03/M07 A304 RMK A01 T10271070  RH  072%=      5-min Rain = 0
KHE1 140754Z 07009KT M03/M07 A304 RMK A01 T10271070  RH  072%=      5-min Rain = 0
KHE1 140755Z 07009KT M03/M07 A304 RMK A01 T10271070  RH  072%=      5-min Rain = 0
KHE1 140756Z 07010KT M03/M07 A304 RMK A01 T10271069  RH  073%=      5-min Rain = 0
KHE1 140757Z 07008KT M03/M07 A304 RMK A01 T10271071  RH  072%=      5-min Rain = 0
KHE1 140758Z 07008KT M03/M07 A304 RMK A01 T10271069  RH  073%=      5-min Rain = 0
KHE1 140759Z 07009KT M03/M07 A304 RMK A01 T10271069  RH  073%=      5-min Rain = 0
KHE1 140800Z 07008KT M03/M07 A304 RMK A01 T10271069  RH  073%=      5-min Rain = 0
KHE1 140801Z 07007KT M03/M07 A304 RMK A01 T10271067  RH  074%=      5-min Rain = 0
KHE1 140802Z 06007KT M03/M07 A304 RMK A01 T10281067  RH  074%=      5-min Rain = 0
KHE1 140803Z 07009KT M03/M07 A304 RMK A01 T10281068  RH  074%=      5-min Rain = 0
KHE1 140804Z 06009KT M03/M07 A304 RMK A01 T10281070  RH  072%=      5-min Rain = 0
KHE1 140805Z 06008KT M03/M07 A304 RMK A01 T10281071  RH  072%=      5-min Rain = 0
KHE1 140806Z 06007KT M03/M07 A304 RMK A01 T10281070  RH  073%=      5-min Rain = 0
KHE1 140807Z 06008KT M03/M07 A304 RMK A01 T10281068  RH  074%=      5-min Rain = 0
KHE1 140808Z 07008KT M03/M07 A304 RMK A01 T10281067  RH  074%=      5-min Rain = 0
KHE1 140809Z 07007KT M03/M07 A304 RMK A01 T10281068  RH  074%=      5-min Rain = 0
KHE1 140810Z 06006KT M03/M07 A304 RMK A01 T10291067  RH  075%=      5-min Rain = 0
KHE1 140811Z 07006KT M03/M06 A304 RMK A01 T10291063  RH  077%=      5-min Rain = 0
KHE1 140812Z 07007KT M03/M06 A304 RMK A01 T10291062  RH  078%=      5-min Rain = 0
KHE1 140813Z 06006KT M03/M07 A304 RMK A01 T10291065  RH  077%=      5-min Rain = 0
KHE1 140814Z 07006KT M03/M06 A304 RMK A01 T10301064  RH  077%=      5-min Rain = 0
KHE1 140815Z 07007KT M03/M07 A304 RMK A01 T10301066  RH  076%=      5-min Rain = 0
KHE1 140816Z 06007KT M03/M07 A304 RMK A01 T10291066  RH  076%=      5-min Rain = 0
KHE1 140817Z 06007KT M03/M06 A304 RMK A01 T10291063  RH  078%=      5-min Rain = 0
KHE1 140818Z 06007KT M03/M07 A3041 RMK A01 T10291065  RH  076%=      5-min Rain = 0
KHE1 140819Z 06008KT M03/M07 A3041 RMK A01 T10291067  RH  075%=      5-min Rain = 0
KHE1 140820Z 06008KT M03/M07 A3041 RMK A01 T10291068  RH  075%=      5-min Rain = 0
KHE1 140821Z 07008KT M03/M07 A3041 RMK A01 T10291069  RH  074%=      5-min Rain = 0
KHE1 140822Z 07007KT M03/M07 A3041 RMK A01 T10291070  RH  073%=      5-min Rain = 0
KHE1 140823Z 06008KT M03/M07 A3041 RMK A01 T10291068  RH  074%=      5-min Rain = 0
KHE1 140824Z 06008KT M03/M07 A3041 RMK A01 T10291070  RH  073%=      5-min Rain = 0
KHE1 140825Z 06008KT M03/M07 A3041 RMK A01 T10291070  RH  073%=      5-min Rain = 0
KHE1 140826Z 06007KT M03/M07 A3041 RMK A01 T10291069  RH  073%=      5-min Rain = 0
KHE1 140827Z 06008KT M03/M07 A3041 RMK A01 T10291067  RH  075%=      5-min Rain = 0
KHE1 140828Z 06007KT M03/M07 A3041 RMK A01 T10301069  RH  075%=      5-min Rain = 0
KHE1 140829Z 07006KT M03/M07 A3041 RMK A01 T10291067  RH  075%=      5-min Rain = 0
KHE1 140830Z 06007KT M03/M07 A3041 RMK A01 T10291067  RH  075%=      5-min Rain = 0
KHE1 140831Z 06006KT M03/M07 A3041 RMK A01 T10291068  RH  075%=      5-min Rain = 0
KHE1 140832Z 06007KT M03/M07 A3041 RMK A01 T10291066  RH  076%=      5-min Rain = 0
KHE1 140833Z 06007KT M03/M07 A3041 RMK A01 T10291067  RH  075%=      5-min Rain = 0
KHE1 140834Z 06008KT M03/M07 A3041 RMK A01 T10291068  RH  075%=      5-min Rain = 0
KHE1 140835Z 06007KT M03/M07 A3041 RMK A01 T10291070  RH  074%=      5-min Rain = 0
KHE1 140836Z 06007KT M03/M07 A3041 RMK A01 T10291070  RH  073%=      5-min Rain = 0
KHE1 140837Z 06006KT M03/M07 A3041 RMK A01 T10301070  RH  074%=      5-min Rain = 0
KHE1 140838Z 06007KT M03/M07 A3041 RMK A01 T10301068  RH  075%=      5-min Rain = 0
KHE1 140839Z 06007KT M03/M07 A3041 RMK A01 T10291068  RH  075%=      5-min Rain = 0
KHE1 140840Z 06007KT M03/M07 A3041 RMK A01 T10301069  RH  074%=      5-min Rain = 0
KHE1 140841Z 06007KT M03/M07 A3041 RMK A01 T10301070  RH  074%=      5-min Rain = 0
KHE1 140842Z 06006KT M03/M07 A304 RMK A01 T10291068  RH  075%=      5-min Rain = 0
KHE1 140843Z 05006KT M03/M07 A304 RMK A01 T10301067  RH  075%=      5-min Rain = 0
KHE1 140844Z 05006KT M03/M07 A304 RMK A01 T10301067  RH  076%=      5-min Rain = 0
KHE1 140845Z 05006KT M03/M07 A304 RMK A01 T10301067  RH  076%=      5-min Rain = 0
KHE1 140846Z 05006KT M03/M07 A304 RMK A01 T10311069  RH  075%=      5-min Rain = 0
KHE1 140847Z 05006KT M03/M07 A3041 RMK A01 T10311069  RH  075%=      5-min Rain = 0
KHE1 140848Z 05007KT M03/M07 A3041 RMK A01 T10311068  RH  075%=      5-min Rain = 0
KHE1 140849Z 05007KT M03/M07 A3041 RMK A01 T10311068  RH  075%=      5-min Rain = 0
KHE1 140850Z 05007KT M03/M07 A304 RMK A01 T10311067  RH  076%=      5-min Rain = 0
KHE1 140851Z 05007KT M03/M07 A304 RMK A01 T10311068  RH  076%=      5-min Rain = 0
KHE1 140852Z 05007KT M03/M07 A304 RMK A01 T10311069  RH  075%=      5-min Rain = 0
KHE1 140853Z 06006KT M03/M07 A304 RMK A01 T10311070  RH  074%=      5-min Rain = 0
KHE1 140854Z 06007KT M03/M07 A304 RMK A01 T10311067  RH  076%=      5-min Rain = 0
KHE1 140855Z 05008KT M03/M07 A304 RMK A01 T10311067  RH  076%=      5-min Rain = 0
KHE1 140856Z 05007KT M03/M07 A304 RMK A01 T10311068  RH  075%=      5-min Rain = 0
KHE1 140857Z 05007KT M03/M07 A304 RMK A01 T10311067  RH  076%=      5-min Rain = 0
KHE1 140858Z 05008KT M03/M07 A304 RMK A01 T10311068  RH  076%=      5-min Rain = 0
KHE1 140859Z 05007KT M03/M07 A304 RMK A01 T10311068  RH  076%=      5-min Rain = 0
KHE1 140900Z 05006KT M03/M07 A304 RMK A01 T10311066  RH  077%=      5-min Rain = 0
KHE1 140901Z 06007KT M03/M07 A304 RMK A01 T10311066  RH  077%=      5-min Rain = 0
KHE1 140902Z 06007KT M03/M07 A304 RMK A01 T10311066  RH  077%=      5-min Rain = 0
KHE1 140903Z 06007KT M03/M07 A304 RMK A01 T10311066  RH  077%=      5-min Rain = 0
KHE1 140904Z 05006KT M03/M07 A304 RMK A01 T10311066  RH  077%=      5-min Rain = 0
KHE1 140905Z 05007KT M03/M07 A304 RMK A01 T10311067  RH  077%=      5-min Rain = 0
KHE1 140906Z 06008KT M03/M07 A304 RMK A01 T10311066  RH  077%=      5-min Rain = 0
KHE1 140907Z 05007KT M03/M07 A304 RMK A01 T10311067  RH  076%=      5-min Rain = 0
KHE1 140908Z 05006KT M03/M07 A304 RMK A01 T10311066  RH  077%=      5-min Rain = 0
KHE1 140909Z 05006KT M03/M06 A304 RMK A01 T10311064  RH  078%=      5-min Rain = 0
KHE1 140910Z 05006KT M03/M06 A304 RMK A01 T10311064  RH  078%=      5-min Rain = 0
KHE1 140911Z 05007KT M03/M07 A304 RMK A01 T10311066  RH  077%=      5-min Rain = 0
KHE1 140912Z 05007KT M03/M07 A304 RMK A01 T10311067  RH  076%=      5-min Rain = 0
KHE1 140913Z 05006KT M03/M07 A304 RMK A01 T10311066  RH  077%=      5-min Rain = 0
KHE1 140914Z 05008KT M03/M07 A304 RMK A01 T10311067  RH  076%=      5-min Rain = 0
KHE1 140915Z 05008KT M03/M07 A304 RMK A01 T10311070  RH  074%=      5-min Rain = 0
KHE1 140916Z 05006KT M03/M07 A304 RMK A01 T10311070  RH  074%=      5-min Rain = 0
KHE1 140917Z 05006KT M03/M07 A304 RMK A01 T10301067  RH  076%=      5-min Rain = 0
KHE1 140918Z 05007KT M03/M07 A304 RMK A01 T10311066  RH  077%=      5-min Rain = 0
KHE1 140919Z 04007KT M03/M07 A304 RMK A01 T10311067  RH  077%=      5-min Rain = 0
KHE1 140920Z 04006KT M03/M07 A304 RMK A01 T10311065  RH  077%=      5-min Rain = 0
KHE1 140921Z 04006KT M03/M07 A304 RMK A01 T10311066  RH  077%=      5-min Rain = 0
KHE1 140922Z 04006KT M03/M07 A304 RMK A01 T10311066  RH  077%=      5-min Rain = 0
KHE1 140923Z 05006KT M03/M07 A304 RMK A01 T10311066  RH  077%=      5-min Rain = 0
KHE1 140924Z 04006KT M03/M07 A304 RMK A01 T10311066  RH  077%=      5-min Rain = 0
KHE1 140925Z 04007KT M03/M07 A304 RMK A01 T10321066  RH  077%=      5-min Rain = 0
KHE1 140926Z 04007KT M03/M07 A304 RMK A01 T10321066  RH  077%=      5-min Rain = 0
KHE1 140927Z 04006KT M03/M07 A304 RMK A01 T10321066  RH  077%=      5-min Rain = 0
KHE1 140928Z 04007KT M03/M07 A304 RMK A01 T10321066  RH  078%=      5-min Rain = 0
KHE1 140929Z 04006KT M03/M07 A304 RMK A01 T10321066  RH  077%=      5-min Rain = 0
KHE1 140930Z 04007KT M03/M07 A304 RMK A01 T10321066  RH  077%=      5-min Rain = 0
KHE1 140931Z 04007KT M03/M07 A304 RMK A01 T10321067  RH  077%=      5-min Rain = 0
KHE1 140932Z 04007KT M03/M07 A304 RMK A01 T10321067  RH  077%=      5-min Rain = 0
KHE1 140933Z 04007KT M03/M07 A304 RMK A01 T10321068  RH  077%=      5-min Rain = 0
KHE1 140934Z 04007KT M03/M07 A304 RMK A01 T10321068  RH  077%=      5-min Rain = 0
KHE1 140935Z 04007KT M03/M07 A304 RMK A01 T10321067  RH  077%=      5-min Rain = 0
KHE1 140936Z 04008KT M03/M07 A304 RMK A01 T10321067  RH  077%=      5-min Rain = 0
KHE1 140937Z 04007KT M03/M07 A304 RMK A01 T10321069  RH  076%=      5-min Rain = 0
KHE1 140938Z 04007KT M03/M07 A304 RMK A01 T10321068  RH  076%=      5-min Rain = 0
KHE1 140939Z 04007KT M03/M07 A304 RMK A01 T10321068  RH  076%=      5-min Rain = 0
KHE1 140940Z 04006KT M03/M07 A304 RMK A01 T10321067  RH  077%=      5-min Rain = 0
KHE1 140941Z 04007KT M03/M07 A304 RMK A01 T10331067  RH  077%=      5-min Rain = 0
KHE1 140942Z 04007KT M03/M07 A304 RMK A01 T10331067  RH  077%=      5-min Rain = 0
KHE1 140943Z 04007KT M03/M07 A304 RMK A01 T10321068  RH  076%=      5-min Rain = 0
KHE1 140944Z 04007KT M03/M07 A304 RMK A01 T10331069  RH  076%=      5-min Rain = 0
KHE1 140945Z 04008KT M03/M07 A304 RMK A01 T10331070  RH  076%=      5-min Rain = 0
KHE1 140946Z 04007KT M03/M07 A304 RMK A01 T10331070  RH  075%=      5-min Rain = 0
KHE1 140947Z 04007KT M03/M07 A304 RMK A01 T10321070  RH  075%=      5-min Rain = 0
KHE1 140948Z 04007KT M03/M07 A304 RMK A01 T10331070  RH  075%=      5-min Rain = 0
KHE1 140949Z 04007KT M03/M07 A304 RMK A01 T10331071  RH  075%=      5-min Rain = 0
KHE1 140950Z 04006KT M03/M07 A304 RMK A01 T10331070  RH  075%=      5-min Rain = 0
KHE1 140951Z 04007KT M03/M07 A304 RMK A01 T10331070  RH  076%=      5-min Rain = 0
KHE1 140952Z 04007KT M03/M07 A304 RMK A01 T10331071  RH  075%=      5-min Rain = 0
KHE1 140953Z 04006KT M03/M07 A304 RMK A01 T10331071  RH  075%=      5-min Rain = 0
KHE1 140954Z 04006KT M03/M07 A304 RMK A01 T10331070  RH  075%=      5-min Rain = 0
KHE1 140955Z 04006KT M03/M07 A304 RMK A01 T10331070  RH  075%=      5-min Rain = 0
KHE1 140956Z 04006KT M03/M07 A304 RMK A01 T10331071  RH  075%=      5-min Rain = 0
KHE1 140957Z 04006KT M03/M07 A304 RMK A01 T10331070  RH  076%=      5-min Rain = 0
KHE1 140958Z 04006KT M03/M07 A304 RMK A01 T10331070  RH  075%=      5-min Rain = 0
KHE1 140959Z 04005KT M03/M07 A304 RMK A01 T10331070  RH  075%=      5-min Rain = 0
KHE1 141000Z 04005KT M03/M07 A304 RMK A01 T10331070  RH  076%=      5-min Rain = 0
KHE1 141001Z 04006KT M03/M07 A304 RMK A01 T10341070  RH  076%=      5-min Rain = 0
KHE1 141002Z 04005KT M03/M07 A304 RMK A01 T10341069  RH  077%=      5-min Rain = 0
KHE1 141003Z 04006KT M03/M07 A304 RMK A01 T10341069  RH  077%=      5-min Rain = 0
KHE1 141004Z 04006KT M03/M07 A304 RMK A01 T10341069  RH  077%=      5-min Rain = 0
KHE1 141005Z 04005KT M03/M07 A304 RMK A01 T10341069  RH  077%=      5-min Rain = 0
KHE1 141006Z 04006KT M03/M07 A304 RMK A01 T10341069  RH  077%=      5-min Rain = 0
KHE1 141007Z 04006KT M03/M07 A304 RMK A01 T10341069  RH  077%=      5-min Rain = 0
KHE1 141008Z 04006KT M03/M07 A304 RMK A01 T10341068  RH  077%=      5-min Rain = 0
KHE1 141009Z 04006KT M03/M07 A304 RMK A01 T10341068  RH  078%=      5-min Rain = 0
KHE1 141010Z 04006KT M03/M07 A304 RMK A01 T10341069  RH  077%=      5-min Rain = 0
KHE1 141011Z 04006KT M03/M07 A304 RMK A01 T10341070  RH  076%=      5-min Rain = 0
KHE1 141012Z 04006KT M03/M07 A304 RMK A01 T10341069  RH  077%=      5-min Rain = 0
KHE1 141013Z 04007KT M03/M07 A304 RMK A01 T10341069  RH  077%=      5-min Rain = 0
KHE1 141014Z 04006KT M03/M07 A304 RMK A01 T10341070  RH  076%=      5-min Rain = 0
KHE1 141015Z 04006KT M03/M07 A304 RMK A01 T10341069  RH  077%=      5-min Rain = 0
KHE1 141016Z 04006KT M03/M07 A304 RMK A01 T10341068  RH  077%=      5-min Rain = 0
KHE1 141017Z 04006KT M04/M07 A304 RMK A01 T10351069  RH  077%=      5-min Rain = 0
KHE1 141018Z 04006KT M03/M07 A304 RMK A01 T10341069  RH  077%=      5-min Rain = 0
KHE1 141019Z 04006KT M03/M07 A304 RMK A01 T10341070  RH  077%=      5-min Rain = 0
KHE1 141020Z 04005KT M03/M07 A304 RMK A01 T10341069  RH  077%=      5-min Rain = 0
KHE1 141021Z 04006KT M03/M07 A304 RMK A01 T10341069  RH  077%=      5-min Rain = 0
KHE1 141022Z 04006KT M03/M07 A304 RMK A01 T10341069  RH  077%=      5-min Rain = 0
KHE1 141023Z 03006KT M03/M07 A304 RMK A01 T10341069  RH  077%=      5-min Rain = 0
KHE1 141024Z 03006KT M03/M07 A304 RMK A01 T10341068  RH  077%=      5-min Rain = 0
KHE1 141025Z 04006KT M03/M07 A3041 RMK A01 T10341069  RH  077%=      5-min Rain = 0
KHE1 141026Z 04005KT M04/M07 A3041 RMK A01 T10351069  RH  077%=      5-min Rain = 0
KHE1 141027Z 04005KT M04/M07 A3041 RMK A01 T10351069  RH  077%=      5-min Rain = 0
KHE1 141028Z 04005KT M04/M07 A3041 RMK A01 T10351070  RH  077%=      5-min Rain = 0
KHE1 141029Z 04005KT M04/M07 A3041 RMK A01 T10351069  RH  077%=      5-min Rain = 0
KHE1 141030Z 04006KT M04/M07 A3041 RMK A01 T10351069  RH  078%=      5-min Rain = 0
KHE1 141031Z 04006KT M04/M07 A3041 RMK A01 T10351070  RH  077%=      5-min Rain = 0
KHE1 141032Z 04006KT M04/M07 A3041 RMK A01 T10351070  RH  077%=      5-min Rain = 0
KHE1 141033Z 04006KT M04/M07 A3041 RMK A01 T10351071  RH  076%=      5-min Rain = 0
KHE1 141034Z 04006KT M04/M07 A3041 RMK A01 T10351070  RH  076%=      5-min Rain = 0
KHE1 141035Z 04005KT M03/M07 A3041 RMK A01 T10341070  RH  076%=      5-min Rain = 0
KHE1 141036Z 04005KT M03/M07 A3041 RMK A01 T10341069  RH  077%=      5-min Rain = 0
KHE1 141037Z 04006KT M03/M07 A3041 RMK A01 T10341070  RH  077%=      5-min Rain = 0
KHE1 141038Z 04005KT M04/M07 A3041 RMK A01 T10351071  RH  076%=      5-min Rain = 0
KHE1 141039Z 04006KT M04/M07 A3041 RMK A01 T10351070  RH  077%=      5-min Rain = 0
KHE1 141040Z 04005KT M04/M07 A3041 RMK A01 T10351071  RH  077%=      5-min Rain = 0
KHE1 141041Z 04006KT M04/M07 A3041 RMK A01 T10351070  RH  077%=      5-min Rain = 0
KHE1 141042Z 04005KT M04/M07 A3041 RMK A01 T10351072  RH  076%=      5-min Rain = 0
KHE1 141043Z 04005KT M04/M07 A3041 RMK A01 T10351071  RH  076%=      5-min Rain = 0
KHE1 141044Z 03005KT M04/M07 A3041 RMK A01 T10351069  RH  077%=      5-min Rain = 0
KHE1 141045Z 04006KT M04/M07 A3041 RMK A01 T10351069  RH  078%=      5-min Rain = 0
KHE1 141046Z 04006KT M04/M07 A3041 RMK A01 T10361070  RH  077%=      5-min Rain = 0
KHE1 141047Z 04005KT M04/M07 A3041 RMK A01 T10361070  RH  077%=      5-min Rain = 0
KHE1 141048Z 04005KT M04/M07 A3041 RMK A01 T10361071  RH  077%=      5-min Rain = 0
KHE1 141049Z 04005KT M04/M07 A3041 RMK A01 T10351070  RH  077%=      5-min Rain = 0
KHE1 141050Z 04005KT M04/M07 A3041 RMK A01 T10351070  RH  077%=      5-min Rain = 0
KHE1 141051Z 04005KT M04/M07 A3041 RMK A01 T10351069  RH  078%=      5-min Rain = 0
KHE1 141052Z 04005KT M04/M07 A3041 RMK A01 T10351069  RH  078%=      5-min Rain = 0
KHE1 141053Z 04005KT M04/M07 A3041 RMK A01 T10351069  RH  078%=      5-min Rain = 0
KHE1 141054Z 03005KT M04/M07 A3042 RMK A01 T10351068  RH  078%=      5-min Rain = 0
KHE1 141055Z 04005KT M04/M07 A3042 RMK A01 T10361068  RH  078%=      5-min Rain = 0
KHE1 141056Z 04005KT M04/M07 A3042 RMK A01 T10361070  RH  077%=      5-min Rain = 0
KHE1 141057Z 04006KT M04/M07 A3042 RMK A01 T10361070  RH  077%=      5-min Rain = 0
KHE1 141058Z 03005KT M04/M07 A3042 RMK A01 T10361070  RH  077%=      5-min Rain = 0
KHE1 141059Z 03005KT M04/M07 A3042 RMK A01 T10361070  RH  077%=      5-min Rain = 0
KHE1 141100Z 03005KT M04/M07 A3042 RMK A01 T10361070  RH  077%=      5-min Rain = 0
KHE1 141101Z 04005KT M04/M07 A3042 RMK A01 T10361070  RH  077%=      5-min Rain = 0
KHE1 141102Z 03004KT M04/M07 A3042 RMK A01 T10361069  RH  077%=      5-min Rain = 0
KHE1 141103Z 03005KT M04/M07 A3042 RMK A01 T10361068  RH  078%=      5-min Rain = 0
KHE1 141104Z 04005KT M04/M07 A3042 RMK A01 T10361069  RH  078%=      5-min Rain = 0
KHE1 141105Z 04005KT M04/M07 A3042 RMK A01 T10361069  RH  078%=      5-min Rain = 0
KHE1 141106Z 03005KT M04/M07 A3042 RMK A01 T10361070  RH  077%=      5-min Rain = 0
KHE1 141107Z 04005KT M04/M07 A3042 RMK A01 T10361068  RH  078%=      5-min Rain = 0
KHE1 141108Z 04005KT M04/M07 A3042 RMK A01 T10361069  RH  078%=      5-min Rain = 0
KHE1 141109Z 04004KT M04/M07 A3042 RMK A01 T10361070  RH  078%=      5-min Rain = 0
KHE1 141110Z 04004KT M04/M07 A3042 RMK A01 T10361069  RH  078%=      5-min Rain = 0
KHE1 141111Z 04005KT M04/M07 A3042 RMK A01 T10361069  RH  078%=      5-min Rain = 0
KHE1 141112Z 03004KT M04/M07 A3042 RMK A01 T10361070  RH  078%=      5-min Rain = 0
KHE1 141113Z 04004KT M04/M07 A3042 RMK A01 T10361070  RH  078%=      5-min Rain = 0
KHE1 141114Z 04004KT M04/M07 A3042 RMK A01 T10361069  RH  078%=      5-min Rain = 0
KHE1 141115Z 04004KT M04/M07 A3042 RMK A01 T10361069  RH  078%=      5-min Rain = 0
KHE1 141116Z 04004KT M04/M07 A3042 RMK A01 T10371070  RH  078%=      5-min Rain = 0
KHE1 141117Z 04004KT M04/M07 A3042 RMK A01 T10371070  RH  078%=      5-min Rain = 0
KHE1 141118Z 04005KT M04/M07 A3042 RMK A01 T10371070  RH  077%=      5-min Rain = 0
KHE1 141119Z 04004KT M04/M07 A3042 RMK A01 T10361071  RH  077%=      5-min Rain = 0
KHE1 141120Z 05005KT M04/M07 A3042 RMK A01 T10361070  RH  077%=      5-min Rain = 0
KHE1 141121Z 04005KT M04/M07 A3042 RMK A01 T10361070  RH  077%=      5-min Rain = 0
KHE1 141122Z 04005KT M04/M07 A3042 RMK A01 T10361070  RH  078%=      5-min Rain = 0
KHE1 141123Z 04004KT M04/M07 A3042 RMK A01 T10361070  RH  077%=      5-min Rain = 0
KHE1 141124Z 04005KT M04/M07 A3042 RMK A01 T10361070  RH  078%=      5-min Rain = 0
KHE1 141125Z 05005KT M04/M07 A3042 RMK A01 T10361069  RH  078%=      5-min Rain = 0
KHE1 141126Z 05005KT M04/M07 A3042 RMK A01 T10361069  RH  078%=      5-min Rain = 0
KHE1 141127Z 05004KT M04/M07 A3042 RMK A01 T10361069  RH  078%=      5-min Rain = 0
KHE1 141128Z 05005KT M04/M07 A3042 RMK A01 T10361068  RH  078%=      5-min Rain = 0
KHE1 141129Z 05005KT M04/M07 A3042 RMK A01 T10361069  RH  078%=      5-min Rain = 0
KHE1 141130Z 04005KT M04/M07 A3042 RMK A01 T10361068  RH  078%=      5-min Rain = 0
KHE1 141131Z 04005KT M04/M07 A3042 RMK A01 T10361067  RH  079%=      5-min Rain = 0
KHE1 141132Z 04005KT M04/M07 A3042 RMK A01 T10361067  RH  079%=      5-min Rain = 0
KHE1 141133Z 03005KT M04/M07 A3042 RMK A01 T10361067  RH  079%=      5-min Rain = 0
KHE1 141134Z 03005KT M04/M07 A3042 RMK A01 T10371067  RH  080%=      5-min Rain = 0
KHE1 141135Z 03005KT M04/M07 A3042 RMK A01 T10371067  RH  080%=      5-min Rain = 0
KHE1 141136Z 03005KT M04/M07 A3042 RMK A01 T10381067  RH  080%=      5-min Rain = 0
KHE1 141137Z 04005KT M04/M07 A3042 RMK A01 T10381067  RH  080%=      5-min Rain = 0
KHE1 141138Z 03005KT M04/M07 A3042 RMK A01 T10381067  RH  080%=      5-min Rain = 0
KHE1 141139Z 03005KT M04/M07 A3042 RMK A01 T10381067  RH  081%=      5-min Rain = 0
KHE1 141140Z 03005KT M04/M07 A3042 RMK A01 T10381067  RH  081%=      5-min Rain = 0
KHE1 141141Z 03005KT M04/M07 A3042 RMK A01 T10381067  RH  080%=      5-min Rain = 0
KHE1 141142Z 03005KT M04/M07 A3042 RMK A01 T10391067  RH  081%=      5-min Rain = 0
KHE1 141143Z 02004KT M04/M07 A3042 RMK A01 T10391066  RH  081%=      5-min Rain = 0
KHE1 141144Z 03004KT M04/M06 A3042 RMK A01 T10391064  RH  083%=      5-min Rain = 0
KHE1 141145Z 04004KT M04/M06 A3042 RMK A01 T10391062  RH  084%=      5-min Rain = 0
KHE1 141146Z 04005KT M04/M06 A3042 RMK A01 T10401063  RH  084%=      5-min Rain = 0
KHE1 141147Z 03005KT M04/M06 A3042 RMK A01 T10391063  RH  084%=      5-min Rain = 0
KHE1 141148Z 03005KT M04/M06 A3042 RMK A01 T10391064  RH  083%=      5-min Rain = 0
KHE1 141149Z 03005KT M04/M06 A3042 RMK A01 T10401064  RH  083%=      5-min Rain = 0
KHE1 141150Z 03005KT M04/M06 A3042 RMK A01 T10401064  RH  083%=      5-min Rain = 0
KHE1 141151Z 03005KT M04/M06 A3042 RMK A01 T10401063  RH  084%=      5-min Rain = 0
KHE1 141152Z 03005KT M04/M06 A3042 RMK A01 T10401063  RH  084%=      5-min Rain = 0
KHE1 141153Z 03005KT M04/M06 A3042 RMK A01 T10411064  RH  084%=      5-min Rain = 0
KHE1 141154Z 03004KT M04/M06 A3042 RMK A01 T10411063  RH  084%=      5-min Rain = 0
KHE1 141155Z 03004KT M04/M06 A3042 RMK A01 T10411063  RH  085%=      5-min Rain = 0
KHE1 141156Z 03004KT M04/M06 A3042 RMK A01 T10411063  RH  085%=      5-min Rain = 0
KHE1 141157Z 03004KT M04/M06 A3042 RMK A01 T10411062  RH  085%=      5-min Rain = 0
KHE1 141158Z 03004KT M04/M06 A3042 RMK A01 T10421063  RH  086%=      5-min Rain = 0
KHE1 141159Z 03005KT M04/M06 A3042 RMK A01 T10421062  RH  086%=      5-min Rain = 0
KHE1 141200Z 03005KT M04/M06 A3042 RMK A01 T10421062  RH  085%=      5-min Rain = 0
KHE1 141201Z 03005KT M04/M06 A3042 RMK A01 T10421063  RH  085%=      5-min Rain = 0
KHE1 141202Z 03005KT M04/M06 A3042 RMK A01 T10421064  RH  085%=      5-min Rain = 0
KHE1 141203Z 03005KT M04/M06 A3042 RMK A01 T10421064  RH  084%=      5-min Rain = 0
KHE1 141204Z 03005KT M04/M06 A3042 RMK A01 T10421064  RH  084%=      5-min Rain = 0
KHE1 141205Z 04005KT M04/M06 A3042 RMK A01 T10421064  RH  085%=      5-min Rain = 0
KHE1 141206Z 04005KT M04/M07 A3042 RMK A01 T10421065  RH  084%=      5-min Rain = 0
KHE1 141207Z 03005KT M04/M07 A3042 RMK A01 T10421065  RH  083%=      5-min Rain = 0
KHE1 141208Z 03005KT M04/M07 A3042 RMK A01 T10421066  RH  083%=      5-min Rain = 0
KHE1 141209Z 04005KT M04/M07 A3042 RMK A01 T10421066  RH  083%=      5-min Rain = 0
KHE1 141210Z 04005KT M04/M07 A3042 RMK A01 T10421065  RH  084%=      5-min Rain = 0
KHE1 141211Z 04005KT M04/M07 A3042 RMK A01 T10421065  RH  084%=      5-min Rain = 0
KHE1 141212Z 04005KT M04/M07 A3042 RMK A01 T10421065  RH  084%=      5-min Rain = 0
KHE1 141213Z 04005KT M04/M07 A3042 RMK A01 T10421065  RH  084%=      5-min Rain = 0
KHE1 141214Z 04005KT M04/M07 A3042 RMK A01 T10421065  RH  084%=      5-min Rain = 0
KHE1 141215Z 04006KT M04/M07 A3042 RMK A01 T10421065  RH  084%=      5-min Rain = 0
KHE1 141216Z 04005KT M04/M07 A3042 RMK A01 T10421067  RH  083%=      5-min Rain = 0
KHE1 141217Z 04006KT M04/M07 A3042 RMK A01 T10421067  RH  083%=      5-min Rain = 0
KHE1 141218Z 04006KT M04/M07 A3042 RMK A01 T10421067  RH  083%=      5-min Rain = 0
KHE1 141219Z 04006KT M04/M07 A3042 RMK A01 T10421067  RH  083%=      5-min Rain = 0
KHE1 141220Z 05005KT M04/M07 A3042 RMK A01 T10421068  RH  082%=      5-min Rain = 0
KHE1 141221Z 04006KT M04/M07 A3042 RMK A01 T10421068  RH  082%=      5-min Rain = 0
KHE1 141222Z 04006KT M04/M07 A3042 RMK A01 T10421068  RH  082%=      5-min Rain = 0
KHE1 141223Z 04006KT M04/M07 A3042 RMK A01 T10421068  RH  082%=      5-min Rain = 0
KHE1 141224Z 04006KT M04/M07 A3042 RMK A01 T10421069  RH  082%=      5-min Rain = 0
KHE1 141225Z 04006KT M04/M07 A3042 RMK A01 T10421069  RH  082%=      5-min Rain = 0
KHE1 141226Z 04005KT M04/M07 A3042 RMK A01 T10421069  RH  081%=      5-min Rain = 0
KHE1 141227Z 04007KT M04/M07 A3042 RMK A01 T10421068  RH  082%=      5-min Rain = 0
KHE1 141228Z 04006KT M04/M07 A3042 RMK A01 T10421069  RH  081%=      5-min Rain = 0
KHE1 141229Z 04006KT M04/M07 A3042 RMK A01 T10421069  RH  082%=      5-min Rain = 0
KHE1 141230Z 04006KT M04/M07 A3042 RMK A01 T10421067  RH  083%=      5-min Rain = 0
KHE1 141231Z 04006KT M04/M07 A3042 RMK A01 T10431067  RH  083%=      5-min Rain = 0
KHE1 141232Z 04005KT M04/M07 A3042 RMK A01 T10431067  RH  083%=      5-min Rain = 0
KHE1 141233Z 04006KT M04/M07 A3042 RMK A01 T10431067  RH  083%=      5-min Rain = 0
KHE1 141234Z 04005KT M04/M07 A3042 RMK A01 T10431067  RH  083%=      5-min Rain = 0
KHE1 141235Z 04006KT M04/M07 A3042 RMK A01 T10431067  RH  083%=      5-min Rain = 0
KHE1 141236Z 04006KT M04/M07 A3042 RMK A01 T10431067  RH  083%=      5-min Rain = 0
KHE1 141237Z 04006KT M04/M07 A3042 RMK A01 T10431067  RH  083%=      5-min Rain = 0
KHE1 141238Z 05005KT M04/M07 A3042 RMK A01 T10421067  RH  083%=      5-min Rain = 0
KHE1 141239Z 05005KT M04/M07 A3042 RMK A01 T10421066  RH  083%=      5-min Rain = 0
KHE1 141240Z 04005KT M04/M07 A3042 RMK A01 T10421066  RH  083%=      5-min Rain = 0
KHE1 141241Z 04005KT M04/M07 A3042 RMK A01 T10421066  RH  084%=      5-min Rain = 0
KHE1 141242Z 04005KT M04/M07 A3042 RMK A01 T10411065  RH  084%=      5-min Rain = 0
KHE1 141243Z 04005KT M04/M07 A3042 RMK A01 T10421065  RH  084%=      5-min Rain = 0
KHE1 141244Z 04005KT M04/M07 A3042 RMK A01 T10431065  RH  085%=      5-min Rain = 0
KHE1 141245Z 04005KT M04/M07 A3042 RMK A01 T10431065  RH  084%=      5-min Rain = 0
KHE1 141246Z 04006KT M04/M07 A3042 RMK A01 T10431065  RH  084%=      5-min Rain = 0
KHE1 141247Z 04006KT M04/M07 A3042 RMK A01 T10421065  RH  084%=      5-min Rain = 0
KHE1 141248Z 04006KT M04/M07 A3042 RMK A01 T10431067  RH  083%=      5-min Rain = 0
KHE1 141249Z 04006KT M04/M07 A3042 RMK A01 T10431067  RH  083%=      5-min Rain = 0
KHE1 141250Z 04006KT M04/M07 A3042 RMK A01 T10431067  RH  083%=      5-min Rain = 0
KHE1 141251Z 04006KT M04/M07 A3042 RMK A01 T10431067  RH  083%=      5-min Rain = 0
KHE1 141252Z 04006KT M04/M07 A3042 RMK A01 T10431066  RH  084%=      5-min Rain = 0
KHE1 141253Z 04007KT M04/M07 A3042 RMK A01 T10431066  RH  084%=      5-min Rain = 0
KHE1 141254Z 04006KT M04/M07 A3042 RMK A01 T10431065  RH  084%=      5-min Rain = 0
KHE1 141255Z 04006KT M04/M07 A3042 RMK A01 T10431066  RH  084%=      5-min Rain = 0
KHE1 141256Z 05006KT M04/M07 A3042 RMK A01 T10431066  RH  084%=      5-min Rain = 0
KHE1 141257Z 04005KT M04/M07 A3042 RMK A01 T10431065  RH  084%=      5-min Rain = 0
KHE1 141258Z 04005KT M04/M07 A3042 RMK A01 T10431065  RH  085%=      5-min Rain = 0
KHE1 141259Z 04006KT M04/M07 A3042 RMK A01 T10431065  RH  085%=      5-min Rain = 0
KHE1 141300Z 04006KT M04/M07 A3042 RMK A01 T10431065  RH  085%=      5-min Rain = 0
KHE1 141301Z 04006KT M04/M07 A3042 RMK A01 T10431065  RH  085%=      5-min Rain = 0
KHE1 141302Z 04005KT M04/M07 A3042 RMK A01 T10431065  RH  085%=      5-min Rain = 0
KHE1 141303Z 04006KT M04/M06 A3042 RMK A01 T10421064  RH  085%=      5-min Rain = 0
KHE1 141304Z 05005KT M04/M06 A3042 RMK A01 T10421064  RH  085%=      5-min Rain = 0
KHE1 141305Z 04005KT M04/M06 A3042 RMK A01 T10421064  RH  085%=      5-min Rain = 0
KHE1 141306Z 04006KT M04/M06 A3042 RMK A01 T10421063  RH  085%=      5-min Rain = 0
KHE1 141307Z 05006KT M04/M06 A3042 RMK A01 T10421064  RH  085%=      5-min Rain = 0
KHE1 141308Z 05006KT M04/M07 A3042 RMK A01 T10421065  RH  085%=      5-min Rain = 0
KHE1 141309Z 05006KT M04/M06 A3042 RMK A01 T10421064  RH  085%=      5-min Rain = 0
KHE1 141310Z 05005KT M04/M06 A3042 RMK A01 T10421064  RH  085%=      5-min Rain = 0
KHE1 141311Z 05006KT M04/M06 A3042 RMK A01 T10421064  RH  085%=      5-min Rain = 0
KHE1 141312Z 05006KT M04/M06 A3042 RMK A01 T10421064  RH  085%=      5-min Rain = 0
KHE1 141313Z 05006KT M04/M06 A3042 RMK A01 T10421064  RH  085%=      5-min Rain = 0
KHE1 141314Z 05006KT M04/M06 A3042 RMK A01 T10421064  RH  084%=      5-min Rain = 0
KHE1 141315Z 05006KT M04/M06 A3042 RMK A01 T10421064  RH  085%=      5-min Rain = 0
KHE1 141316Z 05006KT M04/M07 A3042 RMK A01 T10421065  RH  084%=      5-min Rain = 0
KHE1 141317Z 05006KT M04/M07 A3042 RMK A01 T10411065  RH  084%=      5-min Rain = 0
KHE1 141318Z 05006KT M04/M07 A3042 RMK A01 T10411065  RH  084%=      5-min Rain = 0
KHE1 141319Z 05005KT M04/M07 A3042 RMK A01 T10411065  RH  084%=      5-min Rain = 0
KHE1 141320Z 05005KT M04/M06 A3042 RMK A01 T10411064  RH  084%=      5-min Rain = 0
KHE1 141321Z 05006KT M04/M06 A3042 RMK A01 T10411064  RH  084%=      5-min Rain = 0
KHE1 141322Z 05006KT M04/M07 A3042 RMK A01 T10411065  RH  083%=      5-min Rain = 0
KHE1 141323Z 06007KT M04/M07 A3042 RMK A01 T10411065  RH  083%=      5-min Rain = 0
KHE1 141324Z 06007KT M04/M07 A3042 RMK A01 T10411067  RH  082%=      5-min Rain = 0
KHE1 141325Z 06006KT M04/M07 A3043 RMK A01 T10411066  RH  083%=      5-min Rain = 0
KHE1 141326Z 06005KT M04/M07 A3043 RMK A01 T10411066  RH  083%=      5-min Rain = 0
KHE1 141327Z 06006KT M04/M07 A3043 RMK A01 T10411065  RH  083%=      5-min Rain = 0
KHE1 141328Z 06006KT M04/M06 A3043 RMK A01 T10401064  RH  083%=      5-min Rain = 0
KHE1 141329Z 06008KT M04/M07 A3043 RMK A01 T10401065  RH  083%=      5-min Rain = 0
KHE1 141330Z 07007KT M04/M07 A3043 RMK A01 T10401068  RH  081%=      5-min Rain = 0
KHE1 141331Z 06007KT M04/M07 A3043 RMK A01 T10391067  RH  081%=      5-min Rain = 0
KHE1 141332Z 07006KT M04/M07 A3043 RMK A01 T10391066  RH  081%=      5-min Rain = 0
KHE1 141333Z 06007KT M04/M07 A3043 RMK A01 T10391065  RH  082%=      5-min Rain = 0
KHE1 141334Z 06008KT M04/M07 A3043 RMK A01 T10391066  RH  081%=      5-min Rain = 0
KHE1 141335Z 06007KT M04/M07 A3043 RMK A01 T10391068  RH  080%=      5-min Rain = 0
KHE1 141336Z 06007KT M04/M07 A3043 RMK A01 T10381069  RH  079%=      5-min Rain = 0
KHE1 141337Z 06007KT M04/M07 A3043 RMK A01 T10371066  RH  080%=      5-min Rain = 0
KHE1 141338Z 06007KT M04/M07 A3043 RMK A01 T10381066  RH  081%=      5-min Rain = 0
KHE1 141339Z 06008KT M04/M07 A3043 RMK A01 T10381067  RH  080%=      5-min Rain = 0
KHE1 141340Z 06007KT M04/M07 A3043 RMK A01 T10381068  RH  079%=      5-min Rain = 0
KHE1 141341Z 06007KT M04/M07 A3043 RMK A01 T10371067  RH  080%=      5-min Rain = 0
KHE1 141342Z 06007KT M04/M07 A3043 RMK A01 T10371066  RH  080%=      5-min Rain = 0
KHE1 141343Z 06006KT M04/M07 A3043 RMK A01 T10371068  RH  079%=      5-min Rain = 0
KHE1 141344Z 06006KT M04/M07 A3043 RMK A01 T10371067  RH  080%=      5-min Rain = 0
KHE1 141345Z 06007KT M04/M07 A3043 RMK A01 T10371067  RH  080%=      5-min Rain = 0
KHE1 141346Z 06007KT M04/M07 A3043 RMK A01 T10371067  RH  079%=      5-min Rain = 0
KHE1 141347Z 06006KT M04/M07 A3043 RMK A01 T10371068  RH  079%=      5-min Rain = 0
KHE1 141348Z 07006KT M04/M07 A3043 RMK A01 T10371066  RH  080%=      5-min Rain = 0
KHE1 141349Z 07006KT M04/M07 A3043 RMK A01 T10371067  RH  079%=      5-min Rain = 0
KHE1 141350Z 07006KT M04/M07 A3043 RMK A01 T10361067  RH  080%=      5-min Rain = 0
KHE1 141351Z 06006KT M04/M07 A3043 RMK A01 T10361065  RH  080%=      5-min Rain = 0
KHE1 141352Z 07005KT M04/M07 A3043 RMK A01 T10361065  RH  080%=      5-min Rain = 0
KHE1 141353Z 07005KT M04/M07 A3044 RMK A01 T10361065  RH  080%=      5-min Rain = 0
KHE1 141354Z 07006KT M04/M07 A3044 RMK A01 T10351065  RH  080%=      5-min Rain = 0
KHE1 141355Z 07007KT M04/M07 A3044 RMK A01 T10351069  RH  078%=      5-min Rain = 0
KHE1 141356Z 07006KT M04/M07 A3044 RMK A01 T10351069  RH  078%=      5-min Rain = 0
KHE1 141357Z 07007KT M04/M07 A3044 RMK A01 T10351067  RH  078%=      5-min Rain = 0
KHE1 141358Z 07007KT M03/M07 A3044 RMK A01 T10341067  RH  078%=      5-min Rain = 0
KHE1 141359Z 07006KT M03/M07 A3044 RMK A01 T10341068  RH  077%=      5-min Rain = 0
KHE1 141400Z 07006KT M03/M07 A3044 RMK A01 T10341069  RH  077%=      5-min Rain = 0
KHE1 141401Z 07006KT M03/M07 A3044 RMK A01 T10341068  RH  077%=      5-min Rain = 0
KHE1 141402Z 07006KT M03/M07 A3044 RMK A01 T10331066  RH  078%=      5-min Rain = 0
KHE1 141403Z 07007KT M03/M07 A3044 RMK A01 T10321067  RH  077%=      5-min Rain = 0
KHE1 141404Z 07007KT M03/M07 A3044 RMK A01 T10331070  RH  075%=      5-min Rain = 0
KHE1 141405Z 07006KT M03/M07 A3044 RMK A01 T10331070  RH  076%=      5-min Rain = 0
KHE1 141406Z 07007KT M03/M07 A3044 RMK A01 T10321068  RH  076%=      5-min Rain = 0
KHE1 141407Z 07007KT M03/M07 A3044 RMK A01 T10321069  RH  076%=      5-min Rain = 0
KHE1 141408Z 07007KT M03/M07 A3044 RMK A01 T10321069  RH  076%=      5-min Rain = 0
KHE1 141409Z 06007KT M03/M07 A3044 RMK A01 T10321070  RH  075%=      5-min Rain = 0
KHE1 141410Z 07007KT M03/M07 A3044 RMK A01 T10321071  RH  075%=      5-min Rain = 0
KHE1 141411Z 07006KT M03/M07 A3044 RMK A01 T10321070  RH  075%=      5-min Rain = 0
KHE1 141412Z 07006KT M03/M07 A3044 RMK A01 T10321068  RH  076%=      5-min Rain = 0
KHE1 141413Z 07006KT M03/M07 A3044 RMK A01 T10311067  RH  076%=      5-min Rain = 0
KHE1 141414Z 07007KT M03/M07 A3044 RMK A01 T10301067  RH  076%=      5-min Rain = 0
KHE1 141415Z 07007KT M03/M07 A3044 RMK A01 T10301071  RH  074%=      5-min Rain = 0
KHE1 141416Z 07006KT M03/M07 A3044 RMK A01 T10311071  RH  074%=      5-min Rain = 0
KHE1 141417Z 07006KT M03/M07 A3044 RMK A01 T10321069  RH  075%=      5-min Rain = 0
KHE1 141418Z 06006KT M03/M07 A3044 RMK A01 T10311068  RH  075%=      5-min Rain = 0
KHE1 141419Z 07007KT M03/M07 A3044 RMK A01 T10301068  RH  075%=      5-min Rain = 0
KHE1 141420Z 07006KT M03/M07 A3044 RMK A01 T10301069  RH  075%=      5-min Rain = 0
KHE1 141421Z 07006KT M03/M07 A3045 RMK A01 T10311071  RH  074%=      5-min Rain = 0
KHE1 141422Z 07006KT M03/M07 A3045 RMK A01 T10301068  RH  075%=      5-min Rain = 0
KHE1 141423Z 07006KT M03/M07 A3045 RMK A01 T10301067  RH  076%=      5-min Rain = 0
KHE1 141424Z 06006KT M03/M07 A3045 RMK A01 T10291068  RH  075%=      5-min Rain = 0
KHE1 141425Z 07007KT M03/M07 A3045 RMK A01 T10301068  RH  075%=      5-min Rain = 0
KHE1 141426Z 07006KT M03/M07 A3045 RMK A01 T10291069  RH  074%=      5-min Rain = 0
KHE1 141427Z 07006KT M03/M07 A3045 RMK A01 T10281067  RH  075%=      5-min Rain = 0
KHE1 141428Z 07005KT M03/M07 A3045 RMK A01 T10281070  RH  073%=      5-min Rain = 0
KHE1 141429Z 07006KT M03/M07 A3045 RMK A01 T10281068  RH  074%=      5-min Rain = 0
KHE1 141430Z 07007KT M03/M07 A3045 RMK A01 T10271069  RH  073%=      5-min Rain = 0
KHE1 141431Z 07006KT M03/M07 A3045 RMK A01 T10281069  RH  073%=      5-min Rain = 0
KHE1 141432Z 07006KT M03/M07 A3045 RMK A01 T10271069  RH  073%=      5-min Rain = 0
KHE1 141433Z 08006KT M03/M07 A3045 RMK A01 T10281068  RH  074%=      5-min Rain = 0
KHE1 141434Z 07005KT M03/M07 A3045 RMK A01 T10261066  RH  074%=      5-min Rain = 0
KHE1 141435Z 09005KT M03/M07 A3045 RMK A01 T10251067  RH  073%=      5-min Rain = 0
KHE1 141436Z 07005KT M03/M07 A3045 RMK A01 T10251067  RH  073%=      5-min Rain = 0
KHE1 141437Z 07006KT M03/M07 A3045 RMK A01 T10251067  RH  073%=      5-min Rain = 0
KHE1 141438Z 07005KT M03/M07 A3045 RMK A01 T10251069  RH  072%=      5-min Rain = 0
KHE1 141439Z 08006KT M03/M07 A3045 RMK A01 T10251068  RH  072%=      5-min Rain = 0
KHE1 141440Z 08007KT M03/M07 A3045 RMK A01 T10251068  RH  072%=      5-min Rain = 0
KHE1 141441Z 08007KT M02/M07 A3046 RMK A01 T10241071  RH  070%=      5-min Rain = 0
KHE1 141442Z 09007KT M02/M07 A3046 RMK A01 T10241074  RH  069%=      5-min Rain = 0
KHE1 141443Z 08006KT M03/M08 A3046 RMK A01 T10251076  RH  068%=      5-min Rain = 0
KHE1 141444Z 09006KT M03/M07 A3046 RMK A01 T10261074  RH  070%=      5-min Rain = 0
KHE1 141445Z 08006KT M03/M07 A3046 RMK A01 T10251070  RH  072%=      5-min Rain = 0
KHE1 141446Z 08006KT M02/M07 A3046 RMK A01 T10241071  RH  070%=      5-min Rain = 0
KHE1 141447Z 08007KT M02/M07 A3046 RMK A01 T10241071  RH  070%=      5-min Rain = 0
KHE1 141448Z 08006KT M02/M07 A3046 RMK A01 T10241073  RH  069%=      5-min Rain = 0
KHE1 141449Z 09006KT M02/M07 A3046 RMK A01 T10241070  RH  071%=      5-min Rain = 0
KHE1 141450Z 08006KT M02/M07 A3046 RMK A01 T10231072  RH  069%=      5-min Rain = 0
KHE1 141451Z 09007KT M02/M07 A3046 RMK A01 T10241070  RH  070%=      5-min Rain = 0
KHE1 141452Z 09006KT M02/M07 A3046 RMK A01 T10231070  RH  070%=      5-min Rain = 0
KHE1 141453Z 09006KT M02/M07 A3046 RMK A01 T10231071  RH  070%=      5-min Rain = 0
KHE1 141454Z 08006KT M02/M07 A3046 RMK A01 T10231070  RH  070%=      5-min Rain = 0
KHE1 141455Z 08007KT M02/M07 A3046 RMK A01 T10231070  RH  070%=      5-min Rain = 0
KHE1 141456Z 08006KT M02/M07 A3046 RMK A01 T10221069  RH  070%=      5-min Rain = 0
KHE1 141457Z 08007KT M02/M07 A3046 RMK A01 T10221070  RH  069%=      5-min Rain = 0
KHE1 141458Z 08006KT M02/M07 A3046 RMK A01 T10221070  RH  069%=      5-min Rain = 0
KHE1 141459Z 09006KT M02/M07 A3046 RMK A01 T10221071  RH  069%=      5-min Rain = 0
KHE1 141500Z 09007KT M02/M07 A3046 RMK A01 T10221070  RH  070%=      5-min Rain = 0
KHE1 141501Z 08006KT M02/M07 A3046 RMK A01 T10221068  RH  071%=      5-min Rain = 0
KHE1 141502Z 08005KT M02/M07 A3046 RMK A01 T10221070  RH  070%=      5-min Rain = 0
KHE1 141503Z 09005KT M02/M07 A3046 RMK A01 T10231070  RH  070%=      5-min Rain = 0
KHE1 141504Z 08005KT M02/M07 A3046 RMK A01 T10221069  RH  070%=      5-min Rain = 0
KHE1 141505Z 09006KT M02/M07 A3046 RMK A01 T10201067  RH  070%=      5-min Rain = 0
KHE1 141506Z 10006KT M02/M07 A3046 RMK A01 T10191070  RH  068%=      5-min Rain = 0
KHE1 141507Z 08006KT M02/M07 A3046 RMK A01 T10191072  RH  067%=      5-min Rain = 0
KHE1 141508Z 08007KT M02/M07 A3046 RMK A01 T10191069  RH  069%=      5-min Rain = 0
KHE1 141509Z 08006KT M02/M07 A3046 RMK A01 T10181070  RH  068%=      5-min Rain = 0
KHE1 141510Z 09006KT M02/M07 A3046 RMK A01 T10191071  RH  068%=      5-min Rain = 0
KHE1 141511Z 08006KT M02/M07 A3046 RMK A01 T10191070  RH  068%=      5-min Rain = 0
KHE1 141512Z 07006KT M02/M07 A3046 RMK A01 T10191070  RH  068%=      5-min Rain = 0
KHE1 141513Z 08005KT M02/M07 A3046 RMK A01 T10191071  RH  068%=      5-min Rain = 0
KHE1 141514Z 10005KT M02/M07 A3046 RMK A01 T10191066  RH  070%=      5-min Rain = 0
KHE1 141515Z 09005KT M02/M06 A3046 RMK A01 T10161064  RH  070%=      5-min Rain = 0
KHE1 141516Z 08006KT M02/M07 A3046 RMK A01 T10151065  RH  068%=      5-min Rain = 0
KHE1 141517Z 09006KT M01/M07 A3046 RMK A01 T10141065  RH  068%=      5-min Rain = 0
KHE1 141518Z 08006KT M02/M07 A3046 RMK A01 T10151068  RH  067%=      5-min Rain = 0
KHE1 141519Z 09007KT M02/M07 A3046 RMK A01 T10161069  RH  067%=      5-min Rain = 0
KHE1 141520Z 09007KT M02/M07 A3046 RMK A01 T10151068  RH  067%=      5-min Rain = 0
KHE1 141521Z 10007KT M02/M07 A3046 RMK A01 T10151071  RH  066%=      5-min Rain = 0
KHE1 141522Z 09005KT M02/M07 A3046 RMK A01 T10161070  RH  066%=      5-min Rain = 0
KHE1 141523Z 08005KT M01/M06 A3046 RMK A01 T10141063  RH  069%=      5-min Rain = 0
KHE1 141524Z 08006KT M01/M06 A3046 RMK A01 T10111060  RH  069%=      5-min Rain = 0
KHE1 141525Z 08007KT M01/M06 A3046 RMK A01 T10101064  RH  067%=      5-min Rain = 0
KHE1 141526Z 08006KT M01/M07 A3046 RMK A01 T10121066  RH  066%=      5-min Rain = 0
KHE1 141527Z 08005KT M01/M07 A3046 RMK A01 T10141068  RH  067%=      5-min Rain = 0
KHE1 141528Z 10007KT M01/M07 A3046 RMK A01 T10131066  RH  067%=      5-min Rain = 0
KHE1 141529Z 10007KT M01/M07 A3046 RMK A01 T10121073  RH  063%=      5-min Rain = 0
KHE1 141530Z 09006KT M01/M07 A3045 RMK A01 T10111073  RH  063%=      5-min Rain = 0
KHE1 141531Z 09006KT M01/M07 A3045 RMK A01 T10111074  RH  063%=      5-min Rain = 0
KHE1 141532Z 08006KT M01/M07 A3045 RMK A01 T10111069  RH  064%=      5-min Rain = 0
KHE1 141533Z 08007KT M01/M07 A3045 RMK A01 T10101070  RH  064%=      5-min Rain = 0
KHE1 141534Z 08007KT M01/M07 A3045 RMK A01 T10101070  RH  064%=      5-min Rain = 0
KHE1 141535Z 09006KT M01/M07 A3045 RMK A01 T10111072  RH  063%=      5-min Rain = 0
KHE1 141536Z 08006KT M01/M07 A3045 RMK A01 T10121074  RH  063%=      5-min Rain = 0
KHE1 141537Z 08006KT M01/M07 A3045 RMK A01 T10121073  RH  063%=      5-min Rain = 0
KHE1 141538Z 08006KT M01/M07 A3045 RMK A01 T10121072  RH  064%=      5-min Rain = 0
KHE1 141539Z 08005KT M01/M07 A3045 RMK A01 T10121074  RH  063%=      5-min Rain = 0
KHE1 141540Z 07006KT M01/M07 A3045 RMK A01 T10121071  RH  064%=      5-min Rain = 0
KHE1 141541Z 09008KT M01/M07 A3045 RMK A01 T10111069  RH  065%=      5-min Rain = 0
KHE1 141542Z 09007KT M01/M07 A3045 RMK A01 T10091068  RH  064%=      5-min Rain = 0
KHE1 141543Z 09006KT M01/M07 A3045 RMK A01 T10091071  RH  063%=      5-min Rain = 0
KHE1 141544Z 08006KT M01/M07 A3045 RMK A01 T10091071  RH  063%=      5-min Rain = 0
KHE1 141545Z 09007KT M01/M07 A3045 RMK A01 T10081070  RH  063%=      5-min Rain = 0
KHE1 141546Z 10007KT M01/M07 A3045 RMK A01 T10081072  RH  062%=      5-min Rain = 0
KHE1 141547Z 10006KT M01/M07 A3045 RMK A01 T10091073  RH  062%=      5-min Rain = 0
KHE1 141548Z 09006KT M01/M07 A3045 RMK A01 T10091071  RH  063%=      5-min Rain = 0
KHE1 141549Z 10006KT M01/M07 A3045 RMK A01 T10081067  RH  064%=      5-min Rain = 0
KHE1 141550Z 10005KT M01/M07 A3045 RMK A01 T10051068  RH  063%=      5-min Rain = 0
KHE1 141551Z 10005KT M01/M07 A3045 RMK A01 T10071074  RH  061%=      5-min Rain = 0
KHE1 141552Z 10006KT M01/M07 A3045 RMK A01 T10061068  RH  063%=      5-min Rain = 0
KHE1 141553Z 11006KT M01/M07 A3045 RMK A01 T10051071  RH  061%=      5-min Rain = 0
KHE1 141554Z 11005KT M01/M07 A3045 RMK A01 T10061073  RH  061%=      5-min Rain = 0
KHE1 141555Z 09006KT M01/M07 A3045 RMK A01 T10061069  RH  063%=      5-min Rain = 0
KHE1 141556Z 10007KT M01/M07 A3045 RMK A01 T10061068  RH  063%=      5-min Rain = 0
KHE1 141557Z 09007KT M01/M07 A3045 RMK A01 T10061067  RH  063%=      5-min Rain = 0
KHE1 141558Z 09007KT M00/M07 A3045 RMK A01 T10041066  RH  063%=      5-min Rain = 0
KHE1 141559Z 10006KT M00/M07 A3045 RMK A01 T10041066  RH  063%=      5-min Rain = 0
KHE1 141600Z 11004KT M00/M07 A3045 RMK A01 T10041071  RH  061%=      5-min Rain = 0
KHE1 141601Z 12003KT M01/M07 A3045 RMK A01 T10051068  RH  063%=      5-min Rain = 0
KHE1 141602Z 10006KT M00/M07 A3045 RMK A01 T10031066  RH  062%=      5-min Rain = 0
KHE1 141603Z 09006KT M00/M07 A3045 RMK A01 T10041072  RH  060%=      5-min Rain = 0
KHE1 141604Z 09006KT M00/M07 A3045 RMK A01 T10041066  RH  063%=      5-min Rain = 0
KHE1 141605Z 11005KT M00/M07 A3045 RMK A01 T10031066  RH  062%=      5-min Rain = 0
KHE1 141606Z 11006KT M00/M07 A3045 RMK A01 T10021068  RH  061%=      5-min Rain = 0
KHE1 141607Z 10006KT M00/M07 A3045 RMK A01 T10041074  RH  059%=      5-min Rain = 0
KHE1 141608Z 10004KT M01/M07 A3045 RMK A01 T10051073  RH  060%=      5-min Rain = 0
KHE1 141609Z 11006KT M01/M07 A3045 RMK A01 T10051069  RH  062%=      5-min Rain = 0
KHE1 141610Z 10005KT M00/M07 A3045 RMK A01 T10031065  RH  063%=      5-min Rain = 0
KHE1 141611Z 08005KT M00/M07 A3045 RMK A01 T10011065  RH  062%=      5-min Rain = 0
KHE1 141612Z 11007KT M00/M07 A3045 RMK A01 T10021065  RH  062%=      5-min Rain = 0
KHE1 141613Z 11007KT M00/M07 A3045 RMK A01 T10021067  RH  062%=      5-min Rain = 0
KHE1 141614Z 12006KT M00/M07 A3045 RMK A01 T10021065  RH  062%=      5-min Rain = 0
KHE1 141615Z 12005KT M00/M07 A3044 RMK A01 T10011069  RH  060%=      5-min Rain = 0
KHE1 141616Z 10006KT M00/M07 A3044 RMK A01 T10011068  RH  061%=      5-min Rain = 0
KHE1 141617Z 10005KT M00/M07 A3044 RMK A01 T10021068  RH  061%=      5-min Rain = 0
KHE1 141618Z 10006KT M00/M07 A3044 RMK A01 T10021067  RH  061%=      5-min Rain = 0
KHE1 141619Z 11006KT M00/M07 A3044 RMK A01 T10011065  RH  062%=      5-min Rain = 0
KHE1 141620Z 11005KT 00/07 A3044 RMK A01 T00000-66  RH  061%=      5-min Rain = 0
KHE1 141621Z 10005KT 00/M06 A3044 RMK A01 T00011062  RH  063%=      5-min Rain = 0
KHE1 141622Z 10005KT 00/M07 A3044 RMK A01 T00011066  RH  061%=      5-min Rain = 0
KHE1 141623Z 10005KT 00/07 A3044 RMK A01 T00000-67  RH  061%=      5-min Rain = 0
KHE1 141624Z 11007KT M00/M07 A3044 RMK A01 T10011068  RH  060%=      5-min Rain = 0
KHE1 141625Z 10008KT 00/06 A3044 RMK A01 T00000-63  RH  063%=      5-min Rain = 0
KHE1 141626Z 11007KT 00/M06 A3044 RMK A01 T00021061  RH  063%=      5-min Rain = 0
KHE1 141627Z 11006KT 00/M06 A3044 RMK A01 T00031064  RH  061%=      5-min Rain = 0
KHE1 141628Z 11005KT 00/M06 A3044 RMK A01 T00021064  RH  061%=      5-min Rain = 0
KHE1 141629Z 13005KT 00/M06 A3044 RMK A01 T00021064  RH  061%=      5-min Rain = 0
KHE1 141630Z 11005KT 00/M07 A3044 RMK A01 T00021065  RH  061%=      5-min Rain = 0
KHE1 141631Z 11006KT 00/M07 A3044 RMK A01 T00021066  RH  060%=      5-min Rain = 0
KHE1 141632Z 10005KT 00/07 A3044 RMK A01 T00000-68  RH  060%=      5-min Rain = 0
KHE1 141633Z 10004KT 00/07 A3044 RMK A01 T00000-67  RH  060%=      5-min Rain = 0
KHE1 141634Z 10004KT 00/07 A3044 RMK A01 T00000-65  RH  061%=      5-min Rain = 0
KHE1 141635Z 09005KT 00/M06 A3044 RMK A01 T00021064  RH  062%=      5-min Rain = 0
KHE1 141636Z 11005KT 00/M07 A3044 RMK A01 T00011067  RH  060%=      5-min Rain = 0
KHE1 141637Z 11006KT 00/M06 A3044 RMK A01 T00021060  RH  063%=      5-min Rain = 0
KHE1 141638Z 11005KT 01/M06 A3044 RMK A01 T00051060  RH  062%=      5-min Rain = 0
KHE1 141639Z 13004KT 00/M06 A3044 RMK A01 T00041063  RH  061%=      5-min Rain = 0
KHE1 141640Z 11005KT 00/M06 A3044 RMK A01 T00041063  RH  061%=      5-min Rain = 0
KHE1 141641Z 11007KT 01/M06 A3044 RMK A01 T00051060  RH  062%=      5-min Rain = 0
KHE1 141642Z 13005KT 01/M06 A3044 RMK A01 T00051061  RH  061%=      5-min Rain = 0
KHE1 141643Z 14005KT 01/M06 A3044 RMK A01 T00071058  RH  062%=      5-min Rain = 0
KHE1 141644Z 13005KT 01/M06 A3044 RMK A01 T00081059  RH  061%=      5-min Rain = 0
KHE1 141645Z 12005KT 01/M05 A3044 RMK A01 T00101053  RH  062%=      5-min Rain = 0
KHE1 141646Z 11006KT 01/M06 A3044 RMK A01 T00111060  RH  059%=      5-min Rain = 0
KHE1 141647Z 12004KT 01/M07 A3044 RMK A01 T00081067  RH  057%=      5-min Rain = 0
KHE1 141648Z 13006KT 01/M06 A3044 RMK A01 T00081060  RH  060%=      5-min Rain = 0
KHE1 141649Z 12006KT 01/M06 A3044 RMK A01 T00111058  RH  060%=      5-min Rain = 0
KHE1 141650Z 14007KT 01/M05 A3044 RMK A01 T00121054  RH  061%=      5-min Rain = 0
KHE1 141651Z 14005KT 02/M06 A3044 RMK A01 T00151055  RH  060%=      5-min Rain = 0
KHE1 141652Z 12006KT 01/M06 A3044 RMK A01 T00131061  RH  058%=      5-min Rain = 0
KHE1 141653Z 12006KT 01/M06 A3044 RMK A01 T00121059  RH  059%=      5-min Rain = 0
KHE1 141654Z 13004KT 01/M06 A3044 RMK A01 T00121057  RH  060%=      5-min Rain = 0
KHE1 141655Z 12003KT 01/M06 A3044 RMK A01 T00141059  RH  059%=      5-min Rain = 0
KHE1 141656Z 12006KT 02/M06 A3044 RMK A01 T00151056  RH  060%=      5-min Rain = 0
KHE1 141657Z 11006KT 01/M06 A3044 RMK A01 T00141059  RH  059%=      5-min Rain = 0
KHE1 141658Z 12007KT 01/M06 A3044 RMK A01 T00121059  RH  059%=      5-min Rain = 0
KHE1 141659Z 13005KT 01/M06 A3044 RMK A01 T00121057  RH  060%=      5-min Rain = 0
KHE1 141700Z 12004KT 01/M06 A3044 RMK A01 T00121056  RH  061%=      5-min Rain = 0
KHE1 141701Z 13003KT 01/M06 A3044 RMK A01 T00141056  RH  060%=      5-min Rain = 0
KHE1 141702Z 15004KT 02/M06 A3044 RMK A01 T00151056  RH  059%=      5-min Rain = 0
KHE1 141703Z 13004KT 02/M05 A3044 RMK A01 T00181048  RH  061%=      5-min Rain = 0
KHE1 141704Z 12005KT 02/M05 A3044 RMK A01 T00191053  RH  059%=      5-min Rain = 0
KHE1 141705Z 12005KT 02/M05 A3044 RMK A01 T00191051  RH  060%=      5-min Rain = 0
KHE1 141706Z 14004KT 02/M05 A3044 RMK A01 T00181050  RH  060%=      5-min Rain = 0
KHE1 141707Z 15004KT 02/M05 A3044 RMK A01 T00201048  RH  061%=      5-min Rain = 0
KHE1 141708Z 15006KT 02/M05 A3044 RMK A01 T00221049  RH  060%=      5-min Rain = 0
KHE1 141709Z 17005KT 02/M05 A3044 RMK A01 T00221054  RH  057%=      5-min Rain = 0
KHE1 141710Z 16006KT 02/M06 A3044 RMK A01 T00211055  RH  057%=      5-min Rain = 0
KHE1 141711Z 16005KT 02/M05 A3044 RMK A01 T00201054  RH  058%=      5-min Rain = 0
KHE1 141712Z 17006KT 02/M05 A3044 RMK A01 T00201054  RH  058%=      5-min Rain = 0
KHE1 141713Z 18006KT 02/M05 A3044 RMK A01 T00191054  RH  058%=      5-min Rain = 0
KHE1 141714Z 18006KT 02/M06 A3044 RMK A01 T00181056  RH  058%=      5-min Rain = 0
KHE1 141715Z 15006KT 02/M05 A3044 RMK A01 T00181052  RH  060%=      5-min Rain = 0
KHE1 141716Z 15005KT 02/M06 A3043 RMK A01 T00191057  RH  057%=      5-min Rain = 0
KHE1 141717Z 16005KT 02/M05 A3043 RMK A01 T00201053  RH  059%=      5-min Rain = 0
KHE1 141718Z 17005KT 02/M05 A3043 RMK A01 T00211054  RH  058%=      5-min Rain = 0
KHE1 141719Z 16003KT 02/M04 A3043 RMK A01 T00231044  RH  061%=      5-min Rain = 0
KHE1 141720Z 16004KT 03/M04 A3043 RMK A01 T00271044  RH  060%=      5-min Rain = 0
KHE1 141721Z 15005KT 03/M05 A3043 RMK A01 T00281047  RH  058%=      5-min Rain = 0
KHE1 141722Z 16006KT 03/M05 A3043 RMK A01 T00291047  RH  058%=      5-min Rain = 0
KHE1 141723Z 15006KT 03/M06 A3043 RMK A01 T00271055  RH  054%=      5-min Rain = 0
KHE1 141724Z 14007KT 03/M05 A3043 RMK A01 T00261051  RH  057%=      5-min Rain = 0
KHE1 141725Z 15006KT 02/M06 A3043 RMK A01 T00241056  RH  055%=      5-min Rain = 0
KHE1 141726Z 14008KT 02/M05 A3043 RMK A01 T00231053  RH  057%=      5-min Rain = 0
KHE1 141727Z 15007KT 02/M05 A3043 RMK A01 T00241051  RH  058%=      5-min Rain = 0
KHE1 141728Z 16006KT 03/M05 A3043 RMK A01 T00251045  RH  060%=      5-min Rain = 0
KHE1 141729Z 17006KT 03/M04 A3043 RMK A01 T00281044  RH  060%=      5-min Rain = 0
KHE1 141730Z 16006KT 03/M04 A3043 RMK A01 T00291044  RH  059%=      5-min Rain = 0
KHE1 141731Z 17007KT 03/M05 A3043 RMK A01 T00281050  RH  057%=      5-min Rain = 0
KHE1 141732Z 18006KT 03/M05 A3043 RMK A01 T00261048  RH  058%=      5-min Rain = 0
KHE1 141733Z 19006KT 03/M05 A3043 RMK A01 T00261051  RH  057%=      5-min Rain = 0
KHE1 141734Z 19004KT 02/M06 A3043 RMK A01 T00231055  RH  056%=      5-min Rain = 0
KHE1 141735Z 17003KT 02/M06 A3043 RMK A01 T00221058  RH  056%=      5-min Rain = 0
KHE1 141736Z 15005KT 02/M05 A3042 RMK A01 T00231048  RH  059%=      5-min Rain = 0
KHE1 141737Z 16006KT 03/M05 A3042 RMK A01 T00261048  RH  058%=      5-min Rain = 0
KHE1 141738Z 16005KT 03/M04 A3042 RMK A01 T00301041  RH  059%=      5-min Rain = 0
KHE1 141739Z 15005KT 03/M05 A3042 RMK A01 T00321049  RH  055%=      5-min Rain = 0
KHE1 141740Z 14008KT 03/M05 A3042 RMK A01 T00311050  RH  055%=      5-min Rain = 0
KHE1 141741Z 16004KT 03/M05 A3042 RMK A01 T00291054  RH  054%=      5-min Rain = 0
KHE1 141742Z 18002KT 03/M05 A3042 RMK A01 T00281053  RH  055%=      5-min Rain = 0
KHE1 141743Z 16003KT 03/M05 A3042 RMK A01 T00291052  RH  055%=      5-min Rain = 0
KHE1 141744Z 18006KT 03/M05 A3042 RMK A01 T00301046  RH  057%=      5-min Rain = 0
KHE1 141745Z 16006KT 03/M05 A3042 RMK A01 T00301047  RH  057%=      5-min Rain = 0
KHE1 141746Z 17007KT 03/M05 A3042 RMK A01 T00301046  RH  057%=      5-min Rain = 0
KHE1 141747Z 15005KT 03/M05 A3042 RMK A01 T00311046  RH  057%=      5-min Rain = 0
KHE1 141748Z 15008KT 03/M04 A3042 RMK A01 T00331042  RH  058%=      5-min Rain = 0
KHE1 141749Z 17005KT 03/M05 A3042 RMK A01 T00331046  RH  056%=      5-min Rain = 0
KHE1 141750Z 17004KT 03/M05 A3042 RMK A01 T00331045  RH  057%=      5-min Rain = 0
KHE1 141751Z 18004KT 03/M05 A3042 RMK A01 T00331049  RH  055%=      5-min Rain = 0
KHE1 141752Z 18004KT 03/M04 A3042 RMK A01 T00321043  RH  058%=      5-min Rain = 0
KHE1 141753Z 18004KT 03/M04 A3042 RMK A01 T00331044  RH  057%=      5-min Rain = 0
KHE1 141754Z 16005KT 04/M04 A3042 RMK A01 T00351036  RH  060%=      5-min Rain = 0
KHE1 141755Z 17005KT 04/M04 A3042 RMK A01 T00371038  RH  058%=      5-min Rain = 0
KHE1 141756Z 16007KT 04/M04 A3042 RMK A01 T00371041  RH  057%=      5-min Rain = 0
KHE1 141757Z 15006KT 04/M04 A3042 RMK A01 T00361044  RH  056%=      5-min Rain = 0
KHE1 141758Z 15007KT 04/M04 A3041 RMK A01 T00351044  RH  056%=      5-min Rain = 0
KHE1 141759Z 14004KT 04/M05 A3041 RMK A01 T00351046  RH  055%=      5-min Rain = 0
KHE1 141800Z 15004KT 04/M04 A3041 RMK A01 T00351043  RH  057%=      5-min Rain = 0
KHE1 141801Z 16006KT 04/M04 A3041 RMK A01 T00371041  RH  057%=      5-min Rain = 0
KHE1 141802Z 17008KT 04/M03 A3041 RMK A01 T00391032  RH  060%=      5-min Rain = 0
KHE1 141803Z 17008KT 04/M04 A3041 RMK A01 T00401035  RH  058%=      5-min Rain = 0
KHE1 141804Z 15006KT 04/M04 A3041 RMK A01 T00401039  RH  057%=      5-min Rain = 0
KHE1 141805Z 17005KT 04/M05 A3041 RMK A01 T00381045  RH  055%=      5-min Rain = 0
KHE1 141806Z 16007KT 04/M04 A3041 RMK A01 T00371037  RH  058%=      5-min Rain = 0
KHE1 141807Z 15007KT 04/M04 A3041 RMK A01 T00391037  RH  058%=      5-min Rain = 0
KHE1 141808Z 16006KT 04/M04 A3041 RMK A01 T00391038  RH  057%=      5-min Rain = 0
KHE1 141809Z 17005KT 04/M04 A3041 RMK A01 T00381044  RH  055%=      5-min Rain = 0
KHE1 141810Z 18009KT 04/M04 A3041 RMK A01 T00371042  RH  057%=      5-min Rain = 0
KHE1 141811Z 18008KT 04/M04 A3041 RMK A01 T00361040  RH  058%=      5-min Rain = 0
KHE1 141812Z 17010KT 04/M03 A304 RMK A01 T00371033  RH  060%=      5-min Rain = 0
KHE1 141813Z 15009KT 04/M03 A304 RMK A01 T00391034  RH  059%=      5-min Rain = 0
KHE1 141814Z 14006KT 04/M04 A304 RMK A01 T00391041  RH  056%=      5-min Rain = 0
KHE1 141815Z 16006KT 04/M04 A304 RMK A01 T00381035  RH  059%=      5-min Rain = 0
KHE1 141816Z 19008KT 04/M03 A304 RMK A01 T00411033  RH  059%=      5-min Rain = 0
KHE1 141817Z 20007KT 04/M04 A304 RMK A01 T00381044  RH  055%=      5-min Rain = 0
KHE1 141818Z 21004KT 04/M05 A304 RMK A01 T00361045  RH  056%=      5-min Rain = 0
KHE1 141819Z 19007KT 04/M04 A304 RMK A01 T00351041  RH  057%=      5-min Rain = 0
KHE1 141820Z 18009KT 04/M04 A304 RMK A01 T00371036  RH  059%=      5-min Rain = 0
KHE1 141821Z 18007KT 04/M04 A304 RMK A01 T00371040  RH  057%=      5-min Rain = 0
KHE1 141822Z 18006KT 04/M04 A304 RMK A01 T00371039  RH  058%=      5-min Rain = 0
KHE1 141823Z 18006KT 04/M04 A3039 RMK A01 T00371040  RH  057%=      5-min Rain = 0
KHE1 141824Z 18005KT 04/M04 A3039 RMK A01 T00371040  RH  057%=      5-min Rain = 0
KHE1 141825Z 18005KT 04/M04 A3039 RMK A01 T00381041  RH  056%=      5-min Rain = 0
KHE1 141826Z 19007KT 04/M03 A3039 RMK A01 T00391033  RH  059%=      5-min Rain = 0
KHE1 141827Z 17007KT 04/M04 A3039 RMK A01 T00411035  RH  058%=      5-min Rain = 0
KHE1 141828Z 16007KT 04/M03 A3039 RMK A01 T00421034  RH  058%=      5-min Rain = 0
KHE1 141829Z 15008KT 04/M03 A3039 RMK A01 T00431033  RH  058%=      5-min Rain = 0
KHE1 141830Z 16004KT 04/M04 A3039 RMK A01 T00441036  RH  056%=      5-min Rain = 0
KHE1 141831Z 17007KT 04/M03 A3039 RMK A01 T00441032  RH  058%=      5-min Rain = 0
KHE1 141832Z 17007KT 05/M03 A3039 RMK A01 T00451032  RH  057%=      5-min Rain = 0
KHE1 141833Z 16005KT 05/M03 A3039 RMK A01 T00461030  RH  058%=      5-min Rain = 0
KHE1 141834Z 17006KT 05/M03 A3039 RMK A01 T00491027  RH  058%=      5-min Rain = 0
KHE1 141835Z 17010KT 05/M03 A3038 RMK A01 T00491031  RH  056%=      5-min Rain = 0
KHE1 141836Z 15009KT 05/M03 A3038 RMK A01 T00491026  RH  058%=      5-min Rain = 0
KHE1 141837Z 15008KT 05/M03 A3038 RMK A01 T00491033  RH  055%=      5-min Rain = 0
KHE1 141838Z 14007KT 05/M03 A3038 RMK A01 T00481034  RH  056%=      5-min Rain = 0
KHE1 141839Z 16006KT 05/M02 A3038 RMK A01 T00491022  RH  060%=      5-min Rain = 0
KHE1 141840Z 17006KT 05/M03 A3038 RMK A01 T00521030  RH  056%=      5-min Rain = 0
KHE1 141841Z 17006KT 05/M04 A3038 RMK A01 T00481040  RH  053%=      5-min Rain = 0
KHE1 141842Z 15005KT 05/M04 A3038 RMK A01 T00451039  RH  055%=      5-min Rain = 0
KHE1 141843Z 14003KT 04/M04 A3038 RMK A01 T00441038  RH  055%=      5-min Rain = 0
KHE1 141844Z 16006KT 05/M03 A3038 RMK A01 T00451033  RH  057%=      5-min Rain = 0
KHE1 141845Z 18008KT 05/M03 A3038 RMK A01 T00491025  RH  059%=      5-min Rain = 0
KHE1 141846Z 16007KT 05/M03 A3038 RMK A01 T00501032  RH  056%=      5-min Rain = 0
KHE1 141847Z 16005KT 05/M04 A3038 RMK A01 T00481036  RH  055%=      5-min Rain = 0
KHE1 141848Z 17008KT 05/M02 A3037 RMK A01 T00491024  RH  059%=      5-min Rain = 0
KHE1 141849Z 16010KT 05/M02 A3037 RMK A01 T00531022  RH  058%=      5-min Rain = 0
KHE1 141850Z 16009KT 05/M03 A3037 RMK A01 T00541027  RH  056%=      5-min Rain = 0
KHE1 141851Z 14005KT 05/M04 A3037 RMK A01 T00521037  RH  052%=      5-min Rain = 0
KHE1 141852Z 16007KT 05/M04 A3037 RMK A01 T00501038  RH  053%=      5-min Rain = 0
KHE1 141853Z 16008KT 05/M03 A3037 RMK A01 T00501031  RH  056%=      5-min Rain = 0
KHE1 141854Z 18009KT 05/M03 A3037 RMK A01 T00521026  RH  057%=      5-min Rain = 0
KHE1 141855Z 15010KT 06/M02 A3037 RMK A01 T00551020  RH  058%=      5-min Rain = 0
KHE1 141856Z 15008KT 06/M03 A3037 RMK A01 T00561029  RH  054%=      5-min Rain = 0
KHE1 141857Z 16005KT 06/M04 A3036 RMK A01 T00551035  RH  053%=      5-min Rain = 0
KHE1 141858Z 14005KT 05/M03 A3036 RMK A01 T00531032  RH  054%=      5-min Rain = 0
KHE1 141859Z 13005KT 05/M03 A3036 RMK A01 T00541032  RH  054%=      5-min Rain = 0
KHE1 141900Z 11005KT 05/M04 A3036 RMK A01 T00521035  RH  053%=      5-min Rain = 0
KHE1 141901Z 13006KT 05/M03 A3036 RMK A01 T00511032  RH  055%=      5-min Rain = 0
KHE1 141902Z 16009KT 05/M02 A3036 RMK A01 T00541021  RH  058%=      5-min Rain = 0
KHE1 141903Z 14007KT 06/M03 A3036 RMK A01 T00561026  RH  055%=      5-min Rain = 0
KHE1 141904Z 13005KT 06/M03 A3036 RMK A01 T00561032  RH  053%=      5-min Rain = 0
KHE1 141905Z 13005KT 05/M03 A3036 RMK A01 T00541031  RH  054%=      5-min Rain = 0
KHE1 141906Z 14005KT 05/M03 A3036 RMK A01 T00541032  RH  054%=      5-min Rain = 0
KHE1 141907Z 14007KT 06/M03 A3036 RMK A01 T00551026  RH  056%=      5-min Rain = 0
KHE1 141908Z 15006KT 06/M03 A3036 RMK A01 T00571029  RH  054%=      5-min Rain = 0
KHE1 141909Z 17008KT 06/M03 A3035 RMK A01 T00571031  RH  053%=      5-min Rain = 0
KHE1 141910Z 17005KT 06/M03 A3035 RMK A01 T00551033  RH  053%=      5-min Rain = 0
KHE1 141911Z 16005KT 06/M03 A3035 RMK A01 T00551030  RH  055%=      5-min Rain = 0
KHE1 141912Z 16003KT 06/M03 A3035 RMK A01 T00551034  RH  053%=      5-min Rain = 0
KHE1 141913Z 16004KT 06/M03 A3035 RMK A01 T00551034  RH  053%=      5-min Rain = 0
KHE1 141914Z 16005KT 05/M03 A3035 RMK A01 T00541031  RH  054%=      5-min Rain = 0
KHE1 141915Z 14009KT 06/M03 A3035 RMK A01 T00581026  RH  055%=      5-min Rain = 0
KHE1 141916Z 14009KT 06/M03 A3034 RMK A01 T00591031  RH  052%=      5-min Rain = 0
KHE1 141917Z 14009KT 06/M03 A3034 RMK A01 T00601029  RH  053%=      5-min Rain = 0
KHE1 141918Z 13009KT 06/M03 A3034 RMK A01 T00601031  RH  052%=      5-min Rain = 0
KHE1 141919Z 14007KT 06/M04 A3034 RMK A01 T00581036  RH  051%=      5-min Rain = 0
KHE1 141920Z 13007KT 06/M04 A3034 RMK A01 T00561038  RH  051%=      5-min Rain = 0
KHE1 141921Z 13007KT 06/M03 A3034 RMK A01 T00571028  RH  054%=      5-min Rain = 0
KHE1 141922Z 15006KT 06/M03 A3034 RMK A01 T00591033  RH  052%=      5-min Rain = 0
KHE1 141923Z 17007KT 06/M03 A3034 RMK A01 T00591032  RH  052%=      5-min Rain = 0
KHE1 141924Z 18008KT 06/M03 A3034 RMK A01 T00601026  RH  054%=      5-min Rain = 0
KHE1 141925Z 18007KT 06/M03 A3034 RMK A01 T00591029  RH  053%=      5-min Rain = 0
KHE1 141926Z 15008KT 06/M02 A3034 RMK A01 T00601022  RH  055%=      5-min Rain = 0
KHE1 141927Z 15008KT 06/M03 A3034 RMK A01 T00631027  RH  053%=      5-min Rain = 0
KHE1 141928Z 15008KT 07/M02 A3034 RMK A01 T00651020  RH  055%=      5-min Rain = 0
KHE1 141929Z 16007KT 07/M03 A3034 RMK A01 T00661026  RH  052%=      5-min Rain = 0
KHE1 141930Z 16007KT 07/M03 A3034 RMK A01 T00661025  RH  052%=      5-min Rain = 0
KHE1 141931Z 15010KT 07/M02 A3034 RMK A01 T00661022  RH  053%=      5-min Rain = 0
KHE1 141932Z 14010KT 07/M02 A3034 RMK A01 T00671021  RH  053%=      5-min Rain = 0
KHE1 141933Z 14010KT 07/M02 A3034 RMK A01 T00681021  RH  053%=      5-min Rain = 0
KHE1 141934Z 14010KT 07/M03 A3034 RMK A01 T00671027  RH  051%=      5-min Rain = 0
KHE1 141935Z 15009KT 07/M03 A3034 RMK A01 T00661027  RH  051%=      5-min Rain = 0
KHE1 141936Z 13008KT 06/M03 A3034 RMK A01 T00641030  RH  051%=      5-min Rain = 0
KHE1 141937Z 13010KT 06/M03 A3034 RMK A01 T00641028  RH  052%=      5-min Rain = 0
KHE1 141938Z 13007KT 06/M02 A3034 RMK A01 T00641022  RH  054%=      5-min Rain = 0
KHE1 141939Z 13005KT 07/M03 A3034 RMK A01 T00651026  RH  052%=      5-min Rain = 0
KHE1 141940Z 11007KT 07/M02 A3033 RMK A01 T00661024  RH  052%=      5-min Rain = 0
KHE1 141941Z 13006KT 07/M03 A3033 RMK A01 T00661027  RH  051%=      5-min Rain = 0
KHE1 141942Z 13006KT 07/M02 A3033 RMK A01 T00661023  RH  053%=      5-min Rain = 0
KHE1 141943Z 14005KT 07/M03 A3033 RMK A01 T00671029  RH  050%=      5-min Rain = 0
KHE1 141944Z 14005KT 07/M02 A3033 RMK A01 T00681023  RH  052%=      5-min Rain = 0
KHE1 141945Z 13004KT 07/M02 A3033 RMK A01 T00691021  RH  053%=      5-min Rain = 0
KHE1 141946Z 17005KT 07/M02 A3033 RMK A01 T00701018  RH  053%=      5-min Rain = 0
KHE1 141947Z 17007KT 07/M02 A3033 RMK A01 T00711018  RH  053%=      5-min Rain = 0
KHE1 141948Z 17005KT 07/M02 A3033 RMK A01 T00701023  RH  051%=      5-min Rain = 0
KHE1 141949Z 14007KT 07/M02 A3033 RMK A01 T00701020  RH  053%=      5-min Rain = 0
KHE1 141950Z 14008KT 07/M02 A3032 RMK A01 T00701023  RH  051%=      5-min Rain = 0
KHE1 141951Z 14007KT 07/M02 A3032 RMK A01 T00721018  RH  053%=      5-min Rain = 0
KHE1 141952Z 13004KT 07/M03 A3032 RMK A01 T00701031  RH  049%=      5-min Rain = 0
KHE1 141953Z 14004KT 07/M03 A3032 RMK A01 T00691028  RH  050%=      5-min Rain = 0
KHE1 141954Z 16004KT 07/M03 A3032 RMK A01 T00691025  RH  051%=      5-min Rain = 0
KHE1 141955Z 18003KT 07/M02 A3032 RMK A01 T00711021  RH  052%=      5-min Rain = 0
KHE1 141956Z 15009G14KT 07/M02 A3032 RMK A01 T00721019  RH  052%=      5-min Rain = 0
KHE1 141957Z 15011KT 08/M02 A3032 RMK A01 T00751018  RH  052%=      5-min Rain = 0
KHE1 141958Z 17011KT 08/M02 A3032 RMK A01 T00761024  RH  049%=      5-min Rain = 0
KHE1 141959Z 17009KT 07/M03 A3032 RMK A01 T00741029  RH  048%=      5-min Rain = 0
KHE1 142000Z 16011KT 07/M02 A3031 RMK A01 T00731022  RH  051%=      5-min Rain = 0
KHE1 142001Z 15010KT 07/M03 A3031 RMK A01 T00741026  RH  049%=      5-min Rain = 0
KHE1 142002Z 15008KT 07/M03 A3031 RMK A01 T00741027  RH  049%=      5-min Rain = 0
KHE1 142003Z 16008KT 07/M03 A3031 RMK A01 T00741026  RH  049%=      5-min Rain = 0
KHE1 142004Z 15008KT 07/M02 A3031 RMK A01 T00741023  RH  050%=      5-min Rain = 0
KHE1 142005Z 14006KT 07/M02 A3031 RMK A01 T00731022  RH  051%=      5-min Rain = 0
KHE1 142006Z 15008KT 08/M02 A3031 RMK A01 T00761016  RH  052%=      5-min Rain = 0
KHE1 142007Z 16008KT 08/M02 A3031 RMK A01 T00771022  RH  049%=      5-min Rain = 0
KHE1 142008Z 15007KT 08/M02 A3031 RMK A01 T00771022  RH  049%=      5-min Rain = 0
KHE1 142009Z 17009KT 08/M01 A3031 RMK A01 T00791012  RH  053%=      5-min Rain = 0
KHE1 142010Z 16010KT 08/M02 A3031 RMK A01 T00821016  RH  050%=      5-min Rain = 0
KHE1 142011Z 15011KT 08/M02 A3031 RMK A01 T00811021  RH  049%=      5-min Rain = 0
KHE1 142012Z 16012KT 08/M02 A3031 RMK A01 T00791020  RH  050%=      5-min Rain = 0
KHE1 142013Z 17009KT 08/M02 A3031 RMK A01 T00791019  RH  050%=      5-min Rain = 0
KHE1 142014Z 15011KT 08/M02 A3031 RMK A01 T00781021  RH  050%=      5-min Rain = 0
KHE1 142015Z 16009KT 08/M02 A3031 RMK A01 T00781022  RH  049%=      5-min Rain = 0
KHE1 142016Z 16008KT 08/M02 A3031 RMK A01 T00781020  RH  050%=      5-min Rain = 0
KHE1 142017Z 15009KT 08/M02 A303 RMK A01 T00801017  RH  051%=      5-min Rain = 0
KHE1 142018Z 16008KT 08/M02 A303 RMK A01 T00821016  RH  050%=      5-min Rain = 0
KHE1 142019Z 17006KT 08/M03 A303 RMK A01 T00811026  RH  047%=      5-min Rain = 0
KHE1 142020Z 17004KT 08/M03 A303 RMK A01 T00781026  RH  048%=      5-min Rain = 0
KHE1 142021Z 18007KT 08/M02 A303 RMK A01 T00791016  RH  051%=      5-min Rain = 0
KHE1 142022Z 16007KT 08/M02 A303 RMK A01 T00801021  RH  049%=      5-min Rain = 0
KHE1 142023Z 16008KT 08/M01 A303 RMK A01 T00821009  RH  053%=      5-min Rain = 0
KHE1 142024Z 14007KT 09/M01 A303 RMK A01 T00851009  RH  051%=      5-min Rain = 0
KHE1 142025Z 14008KT 09/M01 A303 RMK A01 T00871011  RH  050%=      5-min Rain = 0
KHE1 142026Z 15007KT 09/M02 A303 RMK A01 T00861018  RH  048%=      5-min Rain = 0
KHE1 142027Z 15006KT 09/M02 A303 RMK A01 T00851018  RH  048%=      5-min Rain = 0
KHE1 142028Z 14005G10KT 09/M02 A303 RMK A01 T00851017  RH  049%=      5-min Rain = 0
KHE1 142029Z 16010KT 09/M01 A303 RMK A01 T00861013  RH  050%=      5-min Rain = 0
KHE1 142030Z 16008KT 09/M02 A303 RMK A01 T00851021  RH  047%=      5-min Rain = 0
KHE1 142031Z 17008KT 08/M02 A303 RMK A01 T00821022  RH  048%=      5-min Rain = 0
KHE1 142032Z 18010KT 08/M02 A303 RMK A01 T00821019  RH  049%=      5-min Rain = 0
KHE1 142033Z 16009KT 08/M02 A303 RMK A01 T00811019  RH  049%=      5-min Rain = 0
KHE1 142034Z 16007KT 08/M02 A303 RMK A01 T00811022  RH  048%=      5-min Rain = 0
KHE1 142035Z 17008KT 08/M02 A3029 RMK A01 T00821021  RH  048%=      5-min Rain = 0
KHE1 142036Z 17011KT 08/M02 A3029 RMK A01 T00841017  RH  049%=      5-min Rain = 0
KHE1 142037Z 16009KT 08/M02 A3029 RMK A01 T00841015  RH  050%=      5-min Rain = 0
KHE1 142038Z 17010KT 09/M02 A3029 RMK A01 T00851016  RH  049%=      5-min Rain = 0
KHE1 142039Z 16009KT 08/M02 A3029 RMK A01 T00841019  RH  048%=      5-min Rain = 0
KHE1 142040Z 17008KT 08/M02 A3029 RMK A01 T00841017  RH  049%=      5-min Rain = 0
KHE1 142041Z 17007KT 08/M02 A3029 RMK A01 T00841018  RH  049%=      5-min Rain = 0
KHE1 142042Z 16007KT 08/M02 A3029 RMK A01 T00841024  RH  047%=      5-min Rain = 0
KHE1 142043Z 18009KT 08/M02 A3029 RMK A01 T00841019  RH  048%=      5-min Rain = 0
KHE1 142044Z 17010KT 09/M02 A3029 RMK A01 T00851015  RH  049%=      5-min Rain = 0
KHE1 142045Z 18011KT 09/M02 A3029 RMK A01 T00871016  RH  048%=      5-min Rain = 0
KHE1 142046Z 17009KT 09/M01 A3029 RMK A01 T00871010  RH  051%=      5-min Rain = 0
KHE1 142047Z 16009KT 09/M01 A3029 RMK A01 T00891009  RH  050%=      5-min Rain = 0
KHE1 142048Z 17009KT 09/M02 A3029 RMK A01 T00891021  RH  046%=      5-min Rain = 0
KHE1 142049Z 18010KT 09/M02 A3029 RMK A01 T00871017  RH  048%=      5-min Rain = 0
KHE1 142050Z 18010KT 09/M01 A3029 RMK A01 T00891007  RH  051%=      5-min Rain = 0
KHE1 142051Z 17010KT 09/M01 A3029 RMK A01 T00911009  RH  049%=      5-min Rain = 0
KHE1 142052Z 17011KT 09/M01 A3029 RMK A01 T00921010  RH  049%=      5-min Rain = 0
KHE1 142053Z 17009KT 09/M02 A3029 RMK A01 T00891021  RH  046%=      5-min Rain = 0
KHE1 142054Z 16010KT 09/M02 A3029 RMK A01 T00881018  RH  047%=      5-min Rain = 0
KHE1 142055Z 15010KT 09/M02 A3029 RMK A01 T00881018  RH  047%=      5-min Rain = 0
KHE1 142056Z 16009KT 09/M02 A3029 RMK A01 T00881016  RH  048%=      5-min Rain = 0
KHE1 142057Z 17009KT 09/M02 A3029 RMK A01 T00901016  RH  048%=      5-min Rain = 0
KHE1 142058Z 18011KT 09/M02 A3029 RMK A01 T00901017  RH  047%=      5-min Rain = 0
KHE1 142059Z 18010KT 09/M02 A3028 RMK A01 T00881019  RH  047%=      5-min Rain = 0
KHE1 142100Z 17013KT 09/M02 A3028 RMK A01 T00871016  RH  048%=      5-min Rain = 0
KHE1 142101Z 16013KT 09/M02 A3028 RMK A01 T00881017  RH  048%=      5-min Rain = 0
KHE1 142102Z 16013KT 09/M02 A3028 RMK A01 T00891018  RH  047%=      5-min Rain = 0
KHE1 142103Z 17011KT 09/M02 A3028 RMK A01 T00881017  RH  048%=      5-min Rain = 0
KHE1 142104Z 16011KT 09/M02 A3028 RMK A01 T00891016  RH  048%=      5-min Rain = 0
KHE1 142105Z 16011KT 09/M02 A3028 RMK A01 T00891021  RH  046%=      5-min Rain = 0
KHE1 142106Z 17008KT 09/M02 A3028 RMK A01 T00891016  RH  048%=      5-min Rain = 0
KHE1 142107Z 16008KT 09/M01 A3028 RMK A01 T00901011  RH  049%=      5-min Rain = 0
KHE1 142108Z 15010KT 09/M01 A3028 RMK A01 T00921011  RH  048%=      5-min Rain = 0
KHE1 142109Z 15010KT 09/M02 A3028 RMK A01 T00921018  RH  046%=      5-min Rain = 0
KHE1 142110Z 15011KT 09/M02 A3028 RMK A01 T00911016  RH  047%=      5-min Rain = 0
KHE1 142111Z 15010KT 09/M02 A3028 RMK A01 T00911018  RH  046%=      5-min Rain = 0
KHE1 142112Z 15008KT 09/M02 A3028 RMK A01 T00901019  RH  046%=      5-min Rain = 0
KHE1 142113Z 14008KT 09/M02 A3028 RMK A01 T00891019  RH  047%=      5-min Rain = 0
KHE1 142114Z 15008KT 09/M02 A3028 RMK A01 T00891019  RH  047%=      5-min Rain = 0
KHE1 142115Z 18010KT 09/M01 A3028 RMK A01 T00911005  RH  051%=      5-min Rain = 0
KHE1 142116Z 17011KT 09/M01 A3028 RMK A01 T00931009  RH  049%=      5-min Rain = 0
KHE1 142117Z 17010KT 09/M01 A3028 RMK A01 T00941006  RH  050%=      5-min Rain = 0
KHE1 142118Z 16012KT 09/M01 A3028 RMK A01 T00941012  RH  048%=      5-min Rain = 0
KHE1 142119Z 16010KT 09/M02 A3028 RMK A01 T00931018  RH  046%=      5-min Rain = 0
KHE1 142120Z 18010KT 09/M01 A3028 RMK A01 T00921012  RH  048%=      5-min Rain = 0
KHE1 142121Z 18012KT 09/M01 A3027 RMK A01 T00931008  RH  049%=      5-min Rain = 0
KHE1 142122Z 18010KT 09/M01 A3028 RMK A01 T00931009  RH  049%=      5-min Rain = 0
KHE1 142123Z 17010KT 09/M01 A3027 RMK A01 T00941007  RH  049%=      5-min Rain = 0
KHE1 142124Z 17010KT 10/M01 A3027 RMK A01 T00951011  RH  047%=      5-min Rain = 0
KHE1 142125Z 17009KT 09/M02 A3027 RMK A01 T00931018  RH  046%=      5-min Rain = 0
KHE1 142126Z 17009KT 09/M02 A3027 RMK A01 T00921016  RH  047%=      5-min Rain = 0
KHE1 142127Z 16010KT 09/M02 A3027 RMK A01 T00921015  RH  047%=      5-min Rain = 0
KHE1 142128Z 16009KT 09/M01 A3027 RMK A01 T00931011  RH  048%=      5-min Rain = 0
KHE1 142129Z 15010KT 09/M01 A3027 RMK A01 T00941011  RH  048%=      5-min Rain = 0
KHE1 142130Z 14008KT 09/M02 A3027 RMK A01 T00941015  RH  047%=      5-min Rain = 0
KHE1 142131Z 16008KT 09/M01 A3027 RMK A01 T00941007  RH  049%=      5-min Rain = 0
KHE1 142132Z 17011KT 10/M00 A3027 RMK A01 T00961002  RH  050%=      5-min Rain = 0
KHE1 142133Z 17011KT 10/M01 A3027 RMK A01 T00971009  RH  047%=      5-min Rain = 0
KHE1 142134Z 17013KT 10/M01 A3027 RMK A01 T00961010  RH  048%=      5-min Rain = 0
KHE1 142135Z 16012KT 09/M02 A3026 RMK A01 T00941017  RH  046%=      5-min Rain = 0
KHE1 142136Z 16011KT 09/M02 A3026 RMK A01 T00921015  RH  047%=      5-min Rain = 0
KHE1 142137Z 16009KT 09/M02 A3026 RMK A01 T00921015  RH  047%=      5-min Rain = 0
KHE1 142138Z 16008KT 09/M01 A3026 RMK A01 T00941009  RH  049%=      5-min Rain = 0
KHE1 142139Z 16010KT 09/M02 A3026 RMK A01 T00941015  RH  046%=      5-min Rain = 0
KHE1 142140Z 17011KT 09/M01 A3026 RMK A01 T00941014  RH  047%=      5-min Rain = 0
KHE1 142141Z 16009KT 09/M01 A3026 RMK A01 T00941011  RH  048%=      5-min Rain = 0
KHE1 142142Z 16012KT 10/M01 A3026 RMK A01 T00951005  RH  050%=      5-min Rain = 0
KHE1 142143Z 16011KT 10/M01 A3026 RMK A01 T00961009  RH  048%=      5-min Rain = 0
KHE1 142144Z 16011KT 10/M01 A3026 RMK A01 T00971005  RH  049%=      5-min Rain = 0
KHE1 142145Z 16013KT 10/M01 A3026 RMK A01 T00971010  RH  047%=      5-min Rain = 0
KHE1 142146Z 15014KT 10/M01 A3026 RMK A01 T00961011  RH  047%=      5-min Rain = 0
KHE1 142147Z 16012KT 10/M02 A3026 RMK A01 T00951016  RH  046%=      5-min Rain = 0
KHE1 142148Z 17010KT 09/M02 A3026 RMK A01 T00931019  RH  045%=      5-min Rain = 0
KHE1 142149Z 17009KT 09/M01 A3026 RMK A01 T00921014  RH  047%=      5-min Rain = 0
KHE1 142150Z 17008KT 09/M01 A3026 RMK A01 T00931013  RH  047%=      5-min Rain = 0
KHE1 142151Z 16008G15KT 09/M01 A3026 RMK A01 T00931012  RH  048%=      5-min Rain = 0
KHE1 142152Z 16012KT 10/M01 A3026 RMK A01 T00951008  RH  048%=      5-min Rain = 0
KHE1 142153Z 17010KT 10/M02 A3026 RMK A01 T00961015  RH  046%=      5-min Rain = 0
KHE1 142154Z 16011KT 10/M01 A3026 RMK A01 T00951011  RH  047%=      5-min Rain = 0
KHE1 142155Z 16012KT 10/M02 A3026 RMK A01 T00951016  RH  046%=      5-min Rain = 0
KHE1 142156Z 17011KT 09/M01 A3026 RMK A01 T00941014  RH  047%=      5-min Rain = 0
KHE1 142157Z 16010KT 09/M01 A3026 RMK A01 T00941007  RH  049%=      5-min Rain = 0
KHE1 142158Z 15009KT 10/M01 A3026 RMK A01 T00961009  RH  048%=      5-min Rain = 0
KHE1 142159Z 16008KT 10/M01 A3026 RMK A01 T00961012  RH  047%=      5-min Rain = 0
KHE1 142200Z 16010KT 10/M01 A3026 RMK A01 T00971005  RH  049%=      5-min Rain = 0
KHE1 142201Z 16011KT 10/M01 A3026 RMK A01 T00981008  RH  048%=      5-min Rain = 0
KHE1 142202Z 16011KT 10/M01 A3026 RMK A01 T00981009  RH  047%=      5-min Rain = 0
KHE1 142203Z 16009KT 10/M02 A3026 RMK A01 T00971016  RH  045%=      5-min Rain = 0
KHE1 142204Z 17008KT 10/M02 A3026 RMK A01 T00951020  RH  045%=      5-min Rain = 0
KHE1 142205Z 16011KT 09/M01 A3026 RMK A01 T00941014  RH  047%=      5-min Rain = 0
KHE1 142206Z 15011KT 10/M01 A3026 RMK A01 T00951012  RH  047%=      5-min Rain = 0
KHE1 142207Z 16009KT 10/M01 A3026 RMK A01 T00951010  RH  048%=      5-min Rain = 0
KHE1 142208Z 18008KT 10/M01 A3026 RMK A01 T00961008  RH  048%=      5-min Rain = 0
KHE1 142209Z 16008KT 10/M01 A3026 RMK A01 T00981007  RH  048%=      5-min Rain = 0
KHE1 142210Z 15008KT 10/M01 A3026 RMK A01 T00981013  RH  046%=      5-min Rain = 0
KHE1 142211Z 16009KT 10/M01 A3026 RMK A01 T00981006  RH  049%=      5-min Rain = 0
KHE1 142212Z 15010KT 10/M01 A3025 RMK A01 T00981005  RH  049%=      5-min Rain = 0
KHE1 142213Z 15011KT 10/M01 A3025 RMK A01 T00981011  RH  046%=      5-min Rain = 0
KHE1 142214Z 14009KT 10/M01 A3025 RMK A01 T00961012  RH  047%=      5-min Rain = 0
KHE1 142215Z 15010KT 10/M01 A3025 RMK A01 T00971006  RH  049%=      5-min Rain = 0
KHE1 142216Z 17010KT 10/M01 A3025 RMK A01 T00981008  RH  048%=      5-min Rain = 0
KHE1 142217Z 17010KT 10/M01 A3025 RMK A01 T00971009  RH  047%=      5-min Rain = 0
KHE1 142218Z 17008KT 10/M01 A3025 RMK A01 T00971010  RH  048%=      5-min Rain = 0
KHE1 142219Z 16009KT 10/M01 A3025 RMK A01 T00971006  RH  049%=      5-min Rain = 0
KHE1 142220Z 16010KT 10/M01 A3025 RMK A01 T00971007  RH  048%=      5-min Rain = 0
KHE1 142221Z 15009KT 10/M01 A3025 RMK A01 T00981012  RH  046%=      5-min Rain = 0
KHE1 142222Z 15009KT 10/M01 A3025 RMK A01 T00971014  RH  046%=      5-min Rain = 0
KHE1 142223Z 16008KT 10/M01 A3025 RMK A01 T00961010  RH  048%=      5-min Rain = 0
KHE1 142224Z 16010KT 10/M00 A3025 RMK A01 T00971002  RH  050%=      5-min Rain = 0
KHE1 142225Z 16010KT 10/M01 A3025 RMK A01 T00991010  RH  047%=      5-min Rain = 0
KHE1 142226Z 18011KT 10/M01 A3025 RMK A01 T00981010  RH  047%=      5-min Rain = 0
KHE1 142227Z 17010KT 10/M01 A3025 RMK A01 T00981007  RH  048%=      5-min Rain = 0
KHE1 142228Z 16010KT 10/M00 A3025 RMK A01 T00991001  RH  050%=      5-min Rain = 0
KHE1 142229Z 15011KT 10/M00 A3025 RMK A01 T01001003  RH  049%=      5-min Rain = 0
KHE1 142230Z 15012KT 10/M01 A3025 RMK A01 T01011007  RH  047%=      5-min Rain = 0
KHE1 142231Z 15010KT 10/M02 A3025 RMK A01 T00991015  RH  045%=      5-min Rain = 0
KHE1 142232Z 15009KT 10/M01 A3025 RMK A01 T00981012  RH  046%=      5-min Rain = 0
KHE1 142233Z 15009KT 10/M01 A3025 RMK A01 T00981008  RH  047%=      5-min Rain = 0
KHE1 142234Z 15009KT 10/M01 A3025 RMK A01 T00991008  RH  047%=      5-min Rain = 0
KHE1 142235Z 15008KT 10/M01 A3025 RMK A01 T00991009  RH  047%=      5-min Rain = 0
KHE1 142236Z 14009KT 10/M00 A3025 RMK A01 T00991004  RH  049%=      5-min Rain = 0
KHE1 142237Z 15009KT 10/M00 A3025 RMK A01 T01001004  RH  048%=      5-min Rain = 0
KHE1 142238Z 14011KT 10/M01 A3024 RMK A01 T01011005  RH  048%=      5-min Rain = 0
KHE1 142239Z 15011KT 10/M01 A3024 RMK A01 T01001008  RH  047%=      5-min Rain = 0
KHE1 142240Z 14009KT 10/M01 A3024 RMK A01 T00991008  RH  047%=      5-min Rain = 0
KHE1 142241Z 14012KT 10/M01 A3024 RMK A01 T00991007  RH  048%=      5-min Rain = 0
KHE1 142242Z 14010KT 10/M01 A3024 RMK A01 T00981009  RH  047%=      5-min Rain = 0
KHE1 142243Z 15011KT 10/M01 A3024 RMK A01 T00981005  RH  049%=      5-min Rain = 0
KHE1 142244Z 14013KT 10/M01 A3024 RMK A01 T00991005  RH  048%=      5-min Rain = 0
KHE1 142245Z 16012KT 10/M01 A3024 RMK A01 T00981007  RH  048%=      5-min Rain = 0
KHE1 142246Z 16010KT 10/M00 A3024 RMK A01 T00991003  RH  049%=      5-min Rain = 0
KHE1 142247Z 16009KT 10/M01 A3024 RMK A01 T00991006  RH  048%=      5-min Rain = 0
KHE1 142248Z 14010KT 10/00 A3024 RMK A01 T01000002  RH  051%=      5-min Rain = 0
KHE1 142249Z 15012KT 10/M01 A3024 RMK A01 T01001005  RH  048%=      5-min Rain = 0
KHE1 142250Z 15011KT 10/M01 A3024 RMK A01 T01001006  RH  048%=      5-min Rain = 0
KHE1 142251Z 15010KT 10/M01 A3024 RMK A01 T01001005  RH  048%=      5-min Rain = 0
KHE1 142252Z 15012KT 10/M01 A3024 RMK A01 T00991006  RH  048%=      5-min Rain = 0
KHE1 142253Z 15011KT 10/M00 A3024 RMK A01 T00991004  RH  048%=      5-min Rain = 0
KHE1 142254Z 15010KT 10/M01 A3024 RMK A01 T01001007  RH  047%=      5-min Rain = 0
KHE1 142255Z 15008KT 10/M00 A3023 RMK A01 T01001002  RH  049%=      5-min Rain = 0
KHE1 142256Z 14010KT 10/00 A3023 RMK A01 T01010002  RH  050%=      5-min Rain = 0
KHE1 142257Z 14012KT 10/M00 A3023 RMK A01 T01011002  RH  049%=      5-min Rain = 0
KHE1 142258Z 15011KT 10/M00 A3023 RMK A01 T01001003  RH  048%=      5-min Rain = 0
KHE1 142259Z 16011KT 10/00 A3023 RMK A01 T01000003  RH  051%=      5-min Rain = 0
KHE1 142300Z 15012KT 10/00 A3023 RMK A01 T010100-0  RH  050%=      5-min Rain = 0
KHE1 142301Z 16012KT 10/M00 A3023 RMK A01 T01001002  RH  049%=      5-min Rain = 0
KHE1 142302Z 15013KT 10/M00 A3023 RMK A01 T01001004  RH  048%=      5-min Rain = 0
KHE1 142303Z 15012KT 10/M01 A3023 RMK A01 T01001005  RH  048%=      5-min Rain = 0
KHE1 142304Z 15010KT 10/00 A3023 RMK A01 T00990003  RH  051%=      5-min Rain = 0
KHE1 142305Z 15013KT 10/00 A3023 RMK A01 T01000001  RH  050%=      5-min Rain = 0
KHE1 142306Z 15012KT 10/M00 A3023 RMK A01 T01001004  RH  048%=      5-min Rain = 0
KHE1 142307Z 15011KT 10/M01 A3023 RMK A01 T00991005  RH  048%=      5-min Rain = 0
KHE1 142308Z 15011KT 10/M00 A3023 RMK A01 T00991003  RH  049%=      5-min Rain = 0
KHE1 142309Z 16011KT 10/00 A3023 RMK A01 T00990002  RH  051%=      5-min Rain = 0
KHE1 142310Z 16011KT 10/M00 A3023 RMK A01 T00991004  RH  049%=      5-min Rain = 0
KHE1 142311Z 16012KT 10/M00 A3023 RMK A01 T00991003  RH  049%=      5-min Rain = 0
KHE1 142312Z 16011KT 10/M01 A3023 RMK A01 T00991005  RH  048%=      5-min Rain = 0
KHE1 142313Z 15012KT 10/M00 A3023 RMK A01 T00991004  RH  049%=      5-min Rain = 0
KHE1 142314Z 15010KT 10/M01 A3023 RMK A01 T00991005  RH  048%=      5-min Rain = 0
KHE1 142315Z 15009KT 10/M00 A3023 RMK A01 T00991001  RH  050%=      5-min Rain = 0
KHE1 142316Z 15010KT 10/00 A3022 RMK A01 T00990001  RH  051%=      5-min Rain = 0
KHE1 142317Z 14010KT 10/M00 A3023 RMK A01 T00991003  RH  049%=      5-min Rain = 0
KHE1 142318Z 15010KT 10/M00 A3023 RMK A01 T00981003  RH  049%=      5-min Rain = 0
KHE1 142319Z 15010KT 10/00 A3023 RMK A01 T00980000  RH  051%=      5-min Rain = 0
KHE1 142320Z 15011KT 10/M00 A3022 RMK A01 T00971004  RH  049%=      5-min Rain = 0
KHE1 142321Z 14010KT 10/M00 A3022 RMK A01 T00971003  RH  050%=      5-min Rain = 0
KHE1 142322Z 14009KT 10/M00 A3022 RMK A01 T00971002  RH  050%=      5-min Rain = 0
KHE1 142323Z 14008KT 10/00 A3022 RMK A01 T009700-0  RH  051%=      5-min Rain = 0
KHE1 142324Z 14008KT 10/00 A3022 RMK A01 T00970001  RH  051%=      5-min Rain = 0
KHE1 142325Z 15009KT 10/00 A3022 RMK A01 T00970002  RH  052%=      5-min Rain = 0
KHE1 142326Z 15011KT 10/M00 A3022 RMK A01 T00971001  RH  050%=      5-min Rain = 0
KHE1 142327Z 15011KT 10/M00 A3022 RMK A01 T00971002  RH  050%=      5-min Rain = 0
KHE1 142328Z 14011KT 10/M01 A3022 RMK A01 T00971005  RH  049%=      5-min Rain = 0
KHE1 142329Z 14011KT 10/M01 A3022 RMK A01 T00971008  RH  048%=      5-min Rain = 0
KHE1 142330Z 14009KT 10/M01 A3022 RMK A01 T00971006  RH  049%=      5-min Rain = 0
KHE1 142331Z 15009KT 10/M00 A3022 RMK A01 T00971003  RH  050%=      5-min Rain = 0
KHE1 142332Z 15010KT 10/00 A3022 RMK A01 T009700-0  RH  051%=      5-min Rain = 0
KHE1 142333Z 15010KT 10/M00 A3022 RMK A01 T00961002  RH  050%=      5-min Rain = 0
KHE1 142334Z 15010KT 10/M00 A3022 RMK A01 T00961003  RH  050%=      5-min Rain = 0
KHE1 142335Z 14008KT 10/M00 A3022 RMK A01 T00961001  RH  051%=      5-min Rain = 0
KHE1 142336Z 14009KT 10/00 A3022 RMK A01 T00960002  RH  052%=      5-min Rain = 0
KHE1 142337Z 14009KT 10/00 A3022 RMK A01 T00960001  RH  051%=      5-min Rain = 0
KHE1 142338Z 14009KT 10/00 A3022 RMK A01 T00960003  RH  052%=      5-min Rain = 0
KHE1 142339Z 15009KT 10/00 A3022 RMK A01 T00950001  RH  052%=      5-min Rain = 0
KHE1 142340Z 15008KT 10/00 A3022 RMK A01 T00950004  RH  053%=      5-min Rain = 0
KHE1 142341Z 15009KT 09/00 A3022 RMK A01 T00940003  RH  053%=      5-min Rain = 0
KHE1 142342Z 15009KT 10/00 A3022 RMK A01 T00950003  RH  053%=      5-min Rain = 0
KHE1 142343Z 14008KT 09/00 A3022 RMK A01 T00940004  RH  053%=      5-min Rain = 0
KHE1 142344Z 14007KT 09/01 A3022 RMK A01 T00940006  RH  054%=      5-min Rain = 0
KHE1 142345Z 14008KT 09/01 A3022 RMK A01 T00930005  RH  054%=      5-min Rain = 0
KHE1 142346Z 14008KT 09/00 A3022 RMK A01 T00930002  RH  053%=      5-min Rain = 0
KHE1 142347Z 14008KT 09/00 A3022 RMK A01 T00930004  RH  054%=      5-min Rain = 0
KHE1 142348Z 14007KT 09/01 A3022 RMK A01 T00930005  RH  054%=      5-min Rain = 0
KHE1 142349Z 14007KT 09/01 A3022 RMK A01 T00930007  RH  055%=      5-min Rain = 0
KHE1 142350Z 14007KT 09/01 A3022 RMK A01 T00920005  RH  054%=      5-min Rain = 0
KHE1 142351Z 14008KT 09/00 A3022 RMK A01 T00920003  RH  054%=      5-min Rain = 0
KHE1 142352Z 14009KT 09/00 A3022 RMK A01 T00920001  RH  053%=      5-min Rain = 0
KHE1 142353Z 14008KT 09/00 A3022 RMK A01 T00920000  RH  053%=      5-min Rain = 0
KHE1 142354Z 14008KT 09/00 A3022 RMK A01 T00920002  RH  053%=      5-min Rain = 0
KHE1 142355Z 14007KT 09/00 A3022 RMK A01 T00910004  RH  054%=      5-min Rain = 0
KHE1 142356Z 14007KT 09/00 A3022 RMK A01 T00910004  RH  055%=      5-min Rain = 0
KHE1 142357Z 14006KT 09/01 A3022 RMK A01 T00900006  RH  056%=      5-min Rain = 0
KHE1 142358Z 14007KT 09/01 A3022 RMK A01 T00890005  RH  056%=      5-min Rain = 0
KHE1 142359Z 14007KT 09/01 A3022 RMK A01 T00890006  RH  056%=      5-min Rain = 0
KHE1 150000Z 14006KT 09/01 A3022 RMK A01 T00880006  RH  056%=      5-min Rain = 0
KHE1 150001Z 14007KT 09/01 A3022 RMK A01 T00880007  RH  057%=      5-min Rain = 0
KHE1 150002Z 14007KT 09/01 A3022 RMK A01 T00880007  RH  057%=      5-min Rain = 0
KHE1 150003Z 14006KT 09/01 A3022 RMK A01 T00870007  RH  057%=      5-min Rain = 0
KHE1 150004Z 14007KT 09/01 A3022 RMK A01 T00860008  RH  058%=      5-min Rain = 0
KHE1 150005Z 14006KT 09/01 A3022 RMK A01 T00860006  RH  057%=      5-min Rain = 0
KHE1 150006Z 14006KT 09/01 A3022 RMK A01 T00860007  RH  058%=      5-min Rain = 0
KHE1 150007Z 14006KT 09/01 A3022 RMK A01 T00850008  RH  058%=      5-min Rain = 0
KHE1 150008Z 14006KT 08/01 A3022 RMK A01 T00840008  RH  059%=      5-min Rain = 0
KHE1 150009Z 14006KT 08/01 A3022 RMK A01 T00830007  RH  059%=      5-min Rain = 0
KHE1 150010Z 14006KT 08/01 A3022 RMK A01 T00830007  RH  059%=      5-min Rain = 0
KHE1 150011Z 14006KT 08/01 A3022 RMK A01 T00830007  RH  059%=      5-min Rain = 0
KHE1 150012Z 14007KT 08/01 A3022 RMK A01 T00820008  RH  059%=      5-min Rain = 0
KHE1 150013Z 14006KT 08/01 A3022 RMK A01 T00820008  RH  060%=      5-min Rain = 0
KHE1 150014Z 14007KT 08/01 A3022 RMK A01 T00810009  RH  060%=      5-min Rain = 0
KHE1 150015Z 14008KT 08/01 A3022 RMK A01 T00800009  RH  061%=      5-min Rain = 0
KHE1 150016Z 14008KT 08/01 A3022 RMK A01 T00800008  RH  060%=      5-min Rain = 0
KHE1 150017Z 13008KT 08/01 A3022 RMK A01 T00800009  RH  061%=      5-min Rain = 0
KHE1 150018Z 13008KT 08/01 A3022 RMK A01 T00800009  RH  061%=      5-min Rain = 0
KHE1 150019Z 13007KT 08/01 A3022 RMK A01 T00800008  RH  061%=      5-min Rain = 0
KHE1 150020Z 14008KT 08/01 A3022 RMK A01 T00800008  RH  061%=      5-min Rain = 0
KHE1 150021Z 14008KT 08/01 A3022 RMK A01 T00790009  RH  061%=      5-min Rain = 0
KHE1 150022Z 14008KT 08/01 A3022 RMK A01 T00780008  RH  061%=      5-min Rain = 0
KHE1 150023Z 14008KT 08/01 A3022 RMK A01 T00780008  RH  061%=      5-min Rain = 0
KHE1 150024Z 14008KT 08/01 A3022 RMK A01 T00780008  RH  061%=      5-min Rain = 0
KHE1 150025Z 14009KT 08/01 A3022 RMK A01 T00780009  RH  062%=      5-min Rain = 0
KHE1 150026Z 14008KT 08/01 A3022 RMK A01 T00770009  RH  062%=      5-min Rain = 0
KHE1 150027Z 14009KT 08/01 A3022 RMK A01 T00770008  RH  062%=      5-min Rain = 0
KHE1 150028Z 14008KT 08/01 A3022 RMK A01 T00760008  RH  062%=      5-min Rain = 0
KHE1 150029Z 14008KT 08/01 A3022 RMK A01 T00760008  RH  062%=      5-min Rain = 0
KHE1 150030Z 14008KT 08/01 A3022 RMK A01 T00760008  RH  062%=      5-min Rain = 0
KHE1 150031Z 14008KT 08/01 A3022 RMK A01 T00750008  RH  062%=      5-min Rain = 0
KHE1 150032Z 14008KT 08/01 A3022 RMK A01 T00750008  RH  063%=      5-min Rain = 0
KHE1 150033Z 14008KT 07/01 A3022 RMK A01 T00740008  RH  063%=      5-min Rain = 0
KHE1 150034Z 14008KT 07/01 A3022 RMK A01 T00730009  RH  064%=      5-min Rain = 0
KHE1 150035Z 14008KT 07/01 A3022 RMK A01 T00720010  RH  065%=      5-min Rain = 0
KHE1 150036Z 14008KT 07/01 A3022 RMK A01 T00720010  RH  065%=      5-min Rain = 0
KHE1 150037Z 14008KT 07/01 A3022 RMK A01 T00710010  RH  065%=      5-min Rain = 0
KHE1 150038Z 14008KT 07/01 A3022 RMK A01 T00700009  RH  065%=      5-min Rain = 0
KHE1 150039Z 14008KT 07/01 A3022 RMK A01 T00700009  RH  065%=      5-min Rain = 0
KHE1 150040Z 14008KT 07/01 A3022 RMK A01 T00700009  RH  065%=      5-min Rain = 0
KHE1 150041Z 14009KT 07/01 A3022 RMK A01 T00700010  RH  066%=      5-min Rain = 0
KHE1 150042Z 14008KT 07/01 A3022 RMK A01 T00690010  RH  066%=      5-min Rain = 0
KHE1 150043Z 14009KT 07/01 A3022 RMK A01 T00690010  RH  066%=      5-min Rain = 0
KHE1 150044Z 14009KT 07/01 A3021 RMK A01 T00690010  RH  066%=      5-min Rain = 0
KHE1 150045Z 14008KT 07/01 A3021 RMK A01 T00680010  RH  066%=      5-min Rain = 0
KHE1 150046Z 14008KT 07/01 A3021 RMK A01 T00680010  RH  066%=      5-min Rain = 0
KHE1 150047Z 14008KT 07/01 A3021 RMK A01 T00680010  RH  067%=      5-min Rain = 0
KHE1 150048Z 14008KT 07/01 A3021 RMK A01 T00670009  RH  066%=      5-min Rain = 0
KHE1 150049Z 14008KT 07/01 A3021 RMK A01 T00670009  RH  066%=      5-min Rain = 0
KHE1 150050Z 14009KT 07/01 A3021 RMK A01 T00670009  RH  066%=      5-min Rain = 0
KHE1 150051Z 14009KT 07/01 A3021 RMK A01 T00670009  RH  066%=      5-min Rain = 0
KHE1 150052Z 14009KT 07/01 A3021 RMK A01 T00670009  RH  066%=      5-min Rain = 0
KHE1 150053Z 14009KT 07/01 A3021 RMK A01 T00670008  RH  066%=      5-min Rain = 0
KHE1 150054Z 14008KT 07/01 A3021 RMK A01 T00680009  RH  066%=      5-min Rain = 0
KHE1 150055Z 14009KT 07/01 A3021 RMK A01 T00680009  RH  066%=      5-min Rain = 0
KHE1 150056Z 14008KT 07/01 A3021 RMK A01 T00670009  RH  067%=      5-min Rain = 0
KHE1 150057Z 14008KT 07/01 A3021 RMK A01 T00670010  RH  067%=      5-min Rain = 0
KHE1 150058Z 14008KT 07/01 A3021 RMK A01 T00660010  RH  068%=      5-min Rain = 0
KHE1 150059Z 14009KT 07/01 A3021 RMK A01 T00660010  RH  067%=      5-min Rain = 0
KHE1 150100Z 14009KT 07/01 A3021 RMK A01 T00650010  RH  068%=      5-min Rain = 0
KHE1 150101Z 14008KT 06/01 A3021 RMK A01 T00640010  RH  068%=      5-min Rain = 0
KHE1 150102Z 14008KT 06/01 A3021 RMK A01 T00640010  RH  068%=      5-min Rain = 0
KHE1 150103Z 14008KT 06/01 A3021 RMK A01 T00630010  RH  069%=      5-min Rain = 0
KHE1 150104Z 14009KT 06/01 A3021 RMK A01 T00630010  RH  069%=      5-min Rain = 0
KHE1 150105Z 14009KT 06/01 A3021 RMK A01 T00620010  RH  069%=      5-min Rain = 0
KHE1 150106Z 14009KT 06/01 A3021 RMK A01 T00620009  RH  069%=      5-min Rain = 0
KHE1 150107Z 14009KT 06/01 A3021 RMK A01 T00630009  RH  068%=      5-min Rain = 0
KHE1 150108Z 14009KT 06/01 A3021 RMK A01 T00630008  RH  068%=      5-min Rain = 0
KHE1 150109Z 14009KT 06/01 A3021 RMK A01 T00640008  RH  067%=      5-min Rain = 0
KHE1 150110Z 14010KT 06/01 A3021 RMK A01 T00640008  RH  067%=      5-min Rain = 0
KHE1 150111Z 14009KT 07/01 A3021 RMK A01 T00650008  RH  067%=      5-min Rain = 0
KHE1 150112Z 14009KT 07/01 A3021 RMK A01 T00650008  RH  067%=      5-min Rain = 0
KHE1 150113Z 14009KT 07/01 A3021 RMK A01 T00650007  RH  067%=      5-min Rain = 0
KHE1 150114Z 14009KT 07/01 A3021 RMK A01 T00650007  RH  066%=      5-min Rain = 0
KHE1 150115Z 14009KT 07/01 A3021 RMK A01 T00650006  RH  066%=      5-min Rain = 0
KHE1 150116Z 14009KT 07/01 A3021 RMK A01 T00650006  RH  066%=      5-min Rain = 0
KHE1 150117Z 14010KT 07/01 A3021 RMK A01 T00650006  RH  066%=      5-min Rain = 0
KHE1 150118Z 14009KT 07/01 A3021 RMK A01 T00650006  RH  066%=      5-min Rain = 0
KHE1 150119Z 14010KT 07/01 A3021 RMK A01 T00660006  RH  066%=      5-min Rain = 0
KHE1 150120Z 14009KT 07/01 A3021 RMK A01 T00660007  RH  066%=      5-min Rain = 0
KHE1 150121Z 14010KT 07/01 A3021 RMK A01 T00650007  RH  067%=      5-min Rain = 0
KHE1 150122Z 14010KT 06/01 A3021 RMK A01 T00640007  RH  067%=      5-min Rain = 0
KHE1 150123Z 14010KT 06/01 A3021 RMK A01 T00630007  RH  067%=      5-min Rain = 0
KHE1 150124Z 14010KT 06/01 A3021 RMK A01 T00630006  RH  066%=      5-min Rain = 0
KHE1 150125Z 14011KT 06/00 A3021 RMK A01 T00640004  RH  065%=      5-min Rain = 0
KHE1 150126Z 15010KT 07/00 A3021 RMK A01 T00650004  RH  065%=      5-min Rain = 0
KHE1 150127Z 14011KT 07/01 A3021 RMK A01 T00650005  RH  066%=      5-min Rain = 0
KHE1 150128Z 14010KT 06/01 A3021 RMK A01 T00640005  RH  066%=      5-min Rain = 0
KHE1 150129Z 14011KT 06/00 A3021 RMK A01 T00640004  RH  066%=      5-min Rain = 0
KHE1 150130Z 14011KT 06/01 A3021 RMK A01 T00640005  RH  066%=      5-min Rain = 0
KHE1 150131Z 14011KT 06/01 A3021 RMK A01 T00640005  RH  066%=      5-min Rain = 0
KHE1 150132Z 14010KT 06/01 A3021 RMK A01 T00630005  RH  066%=      5-min Rain = 0
KHE1 150133Z 14011KT 06/01 A3021 RMK A01 T00620005  RH  067%=      5-min Rain = 0
KHE1 150134Z 14010KT 06/01 A3021 RMK A01 T00620005  RH  067%=      5-min Rain = 0
KHE1 150135Z 14010KT 06/00 A3021 RMK A01 T00620004  RH  066%=      5-min Rain = 0
KHE1 150136Z 14010KT 06/00 A3021 RMK A01 T00620004  RH  066%=      5-min Rain = 0
KHE1 150137Z 14010KT 06/00 A3021 RMK A01 T00620003  RH  066%=      5-min Rain = 0
KHE1 150138Z 14010KT 06/00 A3021 RMK A01 T00610004  RH  066%=      5-min Rain = 0
KHE1 150139Z 14010KT 06/00 A3021 RMK A01 T00610004  RH  067%=      5-min Rain = 0
KHE1 150140Z 14009KT 06/00 A3021 RMK A01 T00600004  RH  068%=      5-min Rain = 0
KHE1 150141Z 14009KT 06/01 A3021 RMK A01 T00590005  RH  068%=      5-min Rain = 0
KHE1 150142Z 14009KT 06/01 A3021 RMK A01 T00570005  RH  069%=      5-min Rain = 0
KHE1 150143Z 14009KT 06/01 A3021 RMK A01 T00560005  RH  070%=      5-min Rain = 0
KHE1 150144Z 14009KT 06/01 A3021 RMK A01 T00560005  RH  070%=      5-min Rain = 0
KHE1 150145Z 14009KT 06/01 A3021 RMK A01 T00550005  RH  070%=      5-min Rain = 0
KHE1 150146Z 14008KT 06/01 A3021 RMK A01 T00550005  RH  070%=      5-min Rain = 0
KHE1 150147Z 14008KT 06/00 A3021 RMK A01 T00550004  RH  070%=      5-min Rain = 0
KHE1 150148Z 14008KT 05/00 A3021 RMK A01 T00540004  RH  070%=      5-min Rain = 0
KHE1 150149Z 14008KT 05/00 A3021 RMK A01 T00540004  RH  070%=      5-min Rain = 0
KHE1 150150Z 14008KT 05/01 A3021 RMK A01 T00530005  RH  071%=      5-min Rain = 0
KHE1 150151Z 14008KT 05/01 A3021 RMK A01 T00520006  RH  072%=      5-min Rain = 0
KHE1 150152Z 14008KT 05/01 A3021 RMK A01 T00510006  RH  073%=      5-min Rain = 0
KHE1 150153Z 14008KT 05/01 A3021 RMK A01 T00490006  RH  074%=      5-min Rain = 0
KHE1 150154Z 14008KT 05/01 A3021 RMK A01 T00480006  RH  074%=      5-min Rain = 0
KHE1 150155Z 14008KT 05/01 A3021 RMK A01 T00470006  RH  075%=      5-min Rain = 0
KHE1 150156Z 14008KT 05/01 A3021 RMK A01 T00470007  RH  075%=      5-min Rain = 0
KHE1 150157Z 14009KT 05/01 A3021 RMK A01 T00460006  RH  075%=      5-min Rain = 0
KHE1 150158Z 14009KT 05/01 A3021 RMK A01 T00460006  RH  076%=      5-min Rain = 0
KHE1 150159Z 15009KT 05/01 A3021 RMK A01 T00460006  RH  076%=      5-min Rain = 0
KHE1 150200Z 15008KT 05/01 A3022 RMK A01 T00460006  RH  075%=      5-min Rain = 0
KHE1 150201Z 15009KT 05/01 A3022 RMK A01 T00460006  RH  075%=      5-min Rain = 0
KHE1 150202Z 15008KT 05/01 A3022 RMK A01 T00460005  RH  075%=      5-min Rain = 0
KHE1 150203Z 15008KT 05/01 A3022 RMK A01 T00460005  RH  075%=      5-min Rain = 0
KHE1 150204Z 15009KT 05/01 A3022 RMK A01 T00470005  RH  074%=      5-min Rain = 0
KHE1 150205Z 15009KT 05/01 A3022 RMK A01 T00460005  RH  074%=      5-min Rain = 0
KHE1 150206Z 15009KT 05/00 A3022 RMK A01 T00460004  RH  074%=      5-min Rain = 0
KHE1 150207Z 15009KT 05/00 A3022 RMK A01 T00460004  RH  074%=      5-min Rain = 0
KHE1 150208Z 15009KT 05/00 A3022 RMK A01 T00470004  RH  074%=      5-min Rain = 0
KHE1 150209Z 14009KT 05/00 A3021 RMK A01 T00470003  RH  073%=      5-min Rain = 0
KHE1 150210Z 14009KT 05/00 A3021 RMK A01 T00480003  RH  073%=      5-min Rain = 0
KHE1 150211Z 14010KT 05/00 A3021 RMK A01 T00480003  RH  073%=      5-min Rain = 0
KHE1 150212Z 14010KT 05/00 A3021 RMK A01 T00490003  RH  072%=      5-min Rain = 0
KHE1 150213Z 14010KT 05/00 A3021 RMK A01 T00480003  RH  072%=      5-min Rain = 0
KHE1 150214Z 14010KT 05/00 A3021 RMK A01 T00490003  RH  072%=      5-min Rain = 0
KHE1 150215Z 14010KT 05/00 A3021 RMK A01 T00500003  RH  072%=      5-min Rain = 0
KHE1 150216Z 14010KT 05/00 A3022 RMK A01 T00500003  RH  072%=      5-min Rain = 0
KHE1 150217Z 14010KT 05/00 A3022 RMK A01 T00510003  RH  071%=      5-min Rain = 0
KHE1 150218Z 14010KT 05/00 A3022 RMK A01 T00510003  RH  071%=      5-min Rain = 0
KHE1 150219Z 14010KT 05/00 A3022 RMK A01 T00520004  RH  071%=      5-min Rain = 0
KHE1 150220Z 14010KT 05/00 A3021 RMK A01 T00520004  RH  071%=      5-min Rain = 0
KHE1 150221Z 15010KT 05/00 A3021 RMK A01 T00520003  RH  071%=      5-min Rain = 0
KHE1 150222Z 15010KT 05/00 A3021 RMK A01 T00520004  RH  071%=      5-min Rain = 0
KHE1 150223Z 15010KT 05/00 A3021 RMK A01 T00520004  RH  071%=      5-min Rain = 0
KHE1 150224Z 15010KT 05/01 A3021 RMK A01 T00520005  RH  071%=      5-min Rain = 0
KHE1 150225Z 15010KT 05/00 A3021 RMK A01 T00510004  RH  071%=      5-min Rain = 0
KHE1 150226Z 15010KT 05/00 A3021 RMK A01 T00510004  RH  072%=      5-min Rain = 0
KHE1 150227Z 15010KT 05/01 A3021 RMK A01 T00510005  RH  072%=      5-min Rain = 0
KHE1 150228Z 15010KT 05/01 A3021 RMK A01 T00520005  RH  072%=      5-min Rain = 0
KHE1 150229Z 15010KT 05/01 A3021 RMK A01 T00510005  RH  072%=      5-min Rain = 0
KHE1 150230Z 14010KT 05/01 A3021 RMK A01 T00510005  RH  072%=      5-min Rain = 0
KHE1 150231Z 14010KT 05/01 A3021 RMK A01 T00510005  RH  072%=      5-min Rain = 0
KHE1 150232Z 15010KT 05/01 A3021 RMK A01 T00520005  RH  072%=      5-min Rain = 0
KHE1 150233Z 15010KT 05/00 A3022 RMK A01 T00510004  RH  072%=      5-min Rain = 0
KHE1 150234Z 15010KT 05/01 A3022 RMK A01 T00510005  RH  072%=      5-min Rain = 0
KHE1 150235Z 14010KT 05/01 A3022 RMK A01 T00510005  RH  072%=      5-min Rain = 0
KHE1 150236Z 15010KT 05/01 A3022 RMK A01 T00510005  RH  072%=      5-min Rain = 0
KHE1 150237Z 15010KT 05/01 A3022 RMK A01 T00510005  RH  072%=      5-min Rain = 0
KHE1 150238Z 15009KT 05/01 A3022 RMK A01 T00510005  RH  072%=      5-min Rain = 0
KHE1 150239Z 15010KT 05/01 A3021 RMK A01 T00500005  RH  072%=      5-min Rain = 0
KHE1 150240Z 15010KT 05/01 A3021 RMK A01 T00500005  RH  073%=      5-min Rain = 0
KHE1 150241Z 14010KT 05/01 A3021 RMK A01 T00500005  RH  073%=      5-min Rain = 0
KHE1 150242Z 15010KT 05/01 A3021 RMK A01 T00500005  RH  073%=      5-min Rain = 0
KHE1 150243Z 15009KT 05/01 A3021 RMK A01 T00490005  RH  073%=      5-min Rain = 0
KHE1 150244Z 15010KT 05/01 A3021 RMK A01 T00500005  RH  073%=      5-min Rain = 0
KHE1 150245Z 15010KT 05/01 A3021 RMK A01 T00500005  RH  072%=      5-min Rain = 0
KHE1 150246Z 14011KT 05/01 A3021 RMK A01 T00500005  RH  072%=      5-min Rain = 0
KHE1 150247Z 15011KT 05/01 A3021 RMK A01 T00500005  RH  072%=      5-min Rain = 0
KHE1 150248Z 14011KT 05/01 A3021 RMK A01 T00500005  RH  073%=      5-min Rain = 0
KHE1 150249Z 14011KT 05/01 A3021 RMK A01 T00500005  RH  072%=      5-min Rain = 0
KHE1 150250Z 15010KT 05/01 A3021 RMK A01 T00510005  RH  072%=      5-min Rain = 0
KHE1 150251Z 15011KT 05/00 A3021 RMK A01 T00510004  RH  072%=      5-min Rain = 0
KHE1 150252Z 15011KT 05/01 A3021 RMK A01 T00520005  RH  072%=      5-min Rain = 0
KHE1 150253Z 15011KT 05/01 A3021 RMK A01 T00520006  RH  072%=      5-min Rain = 0
KHE1 150254Z 15011KT 05/01 A3021 RMK A01 T00510005  RH  072%=      5-min Rain = 0
KHE1 150255Z 15011KT 05/01 A3021 RMK A01 T00510005  RH  072%=      5-min Rain = 0
KHE1 150256Z 15010KT 05/01 A3021 RMK A01 T00520005  RH  072%=      5-min Rain = 0
KHE1 150257Z 15011KT 05/01 A3021 RMK A01 T00520005  RH  072%=      5-min Rain = 0
KHE1 150258Z 15011KT 05/01 A3021 RMK A01 T00520005  RH  072%=      5-min Rain = 0
KHE1 150259Z 15011KT 05/01 A3021 RMK A01 T00520005  RH  072%=      5-min Rain = 0
KHE1 150300Z 15011KT 05/01 A3021 RMK A01 T00520006  RH  072%=      5-min Rain = 0
KHE1 150301Z 15011KT 05/01 A3021 RMK A01 T00520005  RH  072%=      5-min Rain = 0
KHE1 150302Z 15011KT 05/01 A3021 RMK A01 T00530006  RH  071%=      5-min Rain = 0
KHE1 150303Z 15012KT 05/01 A3021 RMK A01 T00530006  RH  072%=      5-min Rain = 0
KHE1 150304Z 15012KT 05/01 A3021 RMK A01 T00530005  RH  071%=      5-min Rain = 0
KHE1 150305Z 15011KT 05/01 A3021 RMK A01 T00530006  RH  071%=      5-min Rain = 0
KHE1 150306Z 15012KT 05/01 A3021 RMK A01 T00530006  RH  071%=      5-min Rain = 0
KHE1 150307Z 15012KT 05/01 A3021 RMK A01 T00530006  RH  071%=      5-min Rain = 0
KHE1 150308Z 15012KT 05/01 A3021 RMK A01 T00540006  RH  071%=      5-min Rain = 0
KHE1 150309Z 15012KT 05/01 A3021 RMK A01 T00540006  RH  071%=      5-min Rain = 0
KHE1 150310Z 15011KT 05/01 A3021 RMK A01 T00540006  RH  071%=      5-min Rain = 0
KHE1 150311Z 15012KT 05/01 A3021 RMK A01 T00540006  RH  071%=      5-min Rain = 0
KHE1 150312Z 15012KT 05/01 A3021 RMK A01 T00540006  RH  071%=      5-min Rain = 0
KHE1 150313Z 15012KT 05/01 A3021 RMK A01 T00540006  RH  071%=      5-min Rain = 0
KHE1 150314Z 15012KT 05/01 A3021 RMK A01 T00540006  RH  071%=      5-min Rain = 0
KHE1 150315Z 15013KT 05/01 A3021 RMK A01 T00540006  RH  071%=      5-min Rain = 0
KHE1 150316Z 15012KT 05/01 A3021 RMK A01 T00540006  RH  071%=      5-min Rain = 0
KHE1 150317Z 15011KT 06/01 A3021 RMK A01 T00550006  RH  071%=      5-min Rain = 0
KHE1 150318Z 15012KT 05/01 A3021 RMK A01 T00540006  RH  071%=      5-min Rain = 0
KHE1 150319Z 15012KT 05/01 A3021 RMK A01 T00540006  RH  071%=      5-min Rain = 0
KHE1 150320Z 15012KT 05/01 A3021 RMK A01 T00540006  RH  071%=      5-min Rain = 0
KHE1 150321Z 15012KT 05/01 A302 RMK A01 T00540006  RH  071%=      5-min Rain = 0
KHE1 150322Z 15012KT 06/01 A302 RMK A01 T00550006  RH  071%=      5-min Rain = 0
KHE1 150323Z 15012KT 05/01 A302 RMK A01 T00540006  RH  071%=      5-min Rain = 0
KHE1 150324Z 15013KT 06/01 A302 RMK A01 T00550007  RH  071%=      5-min Rain = 0
KHE1 150325Z 15012KT 06/01 A302 RMK A01 T00550007  RH  071%=      5-min Rain = 0
KHE1 150326Z 15013KT 06/01 A302 RMK A01 T00550007  RH  071%=      5-min Rain = 0
KHE1 150327Z 15013KT 05/01 A302 RMK A01 T00540007  RH  072%=      5-min Rain = 0
KHE1 150328Z 15013KT 05/01 A302 RMK A01 T00540007  RH  071%=      5-min Rain = 0
KHE1 150329Z 15013KT 05/01 A302 RMK A01 T00540006  RH  071%=      5-min Rain = 0
KHE1 150330Z 15013KT 05/01 A302 RMK A01 T00540007  RH  071%=      5-min Rain = 0
KHE1 150331Z 15013KT 05/01 A302 RMK A01 T00540006  RH  071%=      5-min Rain = 0
KHE1 150332Z 15012KT 05/01 A302 RMK A01 T00540007  RH  071%=      5-min Rain = 0
KHE1 150333Z 15013KT 05/01 A302 RMK A01 T00540006  RH  071%=      5-min Rain = 0
KHE1 150334Z 15012KT 05/01 A302 RMK A01 T00540006  RH  071%=      5-min Rain = 0
KHE1 150335Z 15012KT 05/01 A302 RMK A01 T00540006  RH  071%=      5-min Rain = 0
KHE1 150336Z 15013KT 05/01 A302 RMK A01 T00540006  RH  071%=      5-min Rain = 0
KHE1 150337Z 15012KT 05/01 A302 RMK A01 T00540006  RH  071%=      5-min Rain = 0
KHE1 150338Z 15013KT 05/01 A302 RMK A01 T00540006  RH  071%=      5-min Rain = 0
KHE1 150339Z 15012KT 06/01 A302 RMK A01 T00550006  RH  071%=      5-min Rain = 0
KHE1 150340Z 15013KT 06/01 A302 RMK A01 T00550006  RH  071%=      5-min Rain = 0
KHE1 150341Z 15012KT 06/01 A302 RMK A01 T00550007  RH  071%=      5-min Rain = 0
KHE1 150342Z 15013KT 06/01 A302 RMK A01 T00550007  RH  071%=      5-min Rain = 0
KHE1 150343Z 15013KT 06/01 A302 RMK A01 T00550007  RH  071%=      5-min Rain = 0
KHE1 150344Z 15014KT 05/01 A3019 RMK A01 T00540007  RH  071%=      5-min Rain = 0
KHE1 150345Z 15014KT 06/01 A3019 RMK A01 T00550006  RH  071%=      5-min Rain = 0
KHE1 150346Z 15013KT 06/01 A3019 RMK A01 T00550007  RH  071%=      5-min Rain = 0
KHE1 150347Z 15014KT 06/01 A3019 RMK A01 T00560007  RH  071%=      5-min Rain = 0
KHE1 150348Z 15014KT 06/01 A3019 RMK A01 T00550007  RH  071%=      5-min Rain = 0
KHE1 150349Z 15014KT 06/01 A3019 RMK A01 T00550007  RH  071%=      5-min Rain = 0
KHE1 150350Z 15013KT 06/01 A3019 RMK A01 T00550007  RH  071%=      5-min Rain = 0
KHE1 150351Z 15014KT 06/01 A3019 RMK A01 T00550007  RH  071%=      5-min Rain = 0
KHE1 150352Z 15014KT 05/01 A3019 RMK A01 T00540007  RH  071%=      5-min Rain = 0
KHE1 150353Z 15014KT 06/01 A3019 RMK A01 T00550007  RH  071%=      5-min Rain = 0
KHE1 150354Z 15014KT 06/01 A3019 RMK A01 T00550007  RH  072%=      5-min Rain = 0
KHE1 150355Z 15014KT 05/01 A3019 RMK A01 T00540007  RH  072%=      5-min Rain = 0
KHE1 150356Z 15014KT 05/01 A3019 RMK A01 T00540008  RH  072%=      5-min Rain = 0
KHE1 150357Z 15014KT 05/01 A3019 RMK A01 T00540008  RH  072%=      5-min Rain = 0
KHE1 150358Z 15013KT 05/01 A3019 RMK A01 T00530007  RH  072%=      5-min Rain = 0
KHE1 150359Z 15013KT 05/01 A3019 RMK A01 T00530007  RH  072%=      5-min Rain = 0
KHE1 150400Z 15013KT 05/01 A3019 RMK A01 T00530008  RH  073%=      5-min Rain = 0
KHE1 150401Z 15012KT 05/01 A3019 RMK A01 T00520008  RH  073%=      5-min Rain = 0
KHE1 150402Z 15013KT 05/01 A3019 RMK A01 T00520008  RH  074%=      5-min Rain = 0
KHE1 150403Z 15013KT 05/01 A3019 RMK A01 T00510008  RH  074%=      5-min Rain = 0
KHE1 150404Z 15013KT 05/01 A3019 RMK A01 T00510008  RH  074%=      5-min Rain = 0
KHE1 150405Z 15013KT 05/01 A3019 RMK A01 T00510009  RH  074%=      5-min Rain = 0
KHE1 150406Z 15012KT 05/01 A3019 RMK A01 T00500009  RH  074%=      5-min Rain = 0
KHE1 150407Z 15012KT 05/01 A3019 RMK A01 T00500009  RH  075%=      5-min Rain = 0
KHE1 150408Z 15013KT 05/01 A3019 RMK A01 T00500009  RH  075%=      5-min Rain = 0
KHE1 150409Z 15013KT 05/01 A3019 RMK A01 T00500009  RH  075%=      5-min Rain = 0
KHE1 150410Z 15012KT 05/01 A3019 RMK A01 T00500009  RH  075%=      5-min Rain = 0
KHE1 150411Z 15012KT 05/01 A3019 RMK A01 T00500009  RH  075%=      5-min Rain = 0
KHE1 150412Z 15012KT 05/01 A3019 RMK A01 T00500009  RH  075%=      5-min Rain = 0
KHE1 150413Z 15012KT 05/01 A3019 RMK A01 T00500009  RH  075%=      5-min Rain = 0
KHE1 150414Z 15011KT 05/01 A3019 RMK A01 T00500010  RH  075%=      5-min Rain = 0
KHE1 150415Z 15012KT 05/01 A3019 RMK A01 T00500010  RH  075%=      5-min Rain = 0
KHE1 150416Z 15013KT 05/01 A3019 RMK A01 T00500010  RH  075%=      5-min Rain = 0
KHE1 150417Z 15012KT 05/01 A3019 RMK A01 T00500010  RH  075%=      5-min Rain = 0
KHE1 150418Z 15012KT 05/01 A3019 RMK A01 T00500010  RH  075%=      5-min Rain = 0
KHE1 150419Z 15013KT 05/01 A3019 RMK A01 T00500010  RH  075%=      5-min Rain = 0
KHE1 150420Z 15012KT 05/01 A3019 RMK A01 T00510010  RH  075%=      5-min Rain = 0
KHE1 150421Z 15012KT 05/01 A3019 RMK A01 T00500010  RH  075%=      5-min Rain = 0
KHE1 150422Z 15012KT 05/01 A3019 RMK A01 T00510011  RH  075%=      5-min Rain = 0
KHE1 150423Z 16013KT 05/01 A3019 RMK A01 T00500011  RH  075%=      5-min Rain = 0
KHE1 150424Z 15012KT 05/01 A3019 RMK A01 T00510011  RH  075%=      5-min Rain = 0
KHE1 150425Z 16012KT 05/01 A3019 RMK A01 T00530011  RH  075%=      5-min Rain = 0
KHE1 150426Z 15013KT 05/01 A3019 RMK A01 T00530011  RH  074%=      5-min Rain = 0
KHE1 150427Z 15013KT 05/01 A3019 RMK A01 T00530011  RH  074%=      5-min Rain = 0
KHE1 150428Z 15012KT 05/01 A3019 RMK A01 T00540010  RH  073%=      5-min Rain = 0
KHE1 150429Z 15013KT 05/01 A3019 RMK A01 T00540011  RH  073%=      5-min Rain = 0
KHE1 150430Z 16013KT 06/01 A3019 RMK A01 T00550011  RH  073%=      5-min Rain = 0
KHE1 150431Z 15012G17KT 06/01 A3019 RMK A01 T00550011  RH  073%=      5-min Rain = 0
KHE1 150432Z 16013KT 06/01 A3019 RMK A01 T00560011  RH  073%=      5-min Rain = 0
KHE1 150433Z 16014KT 06/01 A3019 RMK A01 T00560011  RH  073%=      5-min Rain = 0
KHE1 150434Z 16013KT 06/01 A3019 RMK A01 T00570011  RH  072%=      5-min Rain = 0
KHE1 150435Z 16013KT 06/01 A3019 RMK A01 T00570011  RH  072%=      5-min Rain = 0
KHE1 150436Z 16014KT 06/01 A3019 RMK A01 T00570012  RH  072%=      5-min Rain = 0
KHE1 150437Z 16015KT 06/01 A3019 RMK A01 T00570011  RH  073%=      5-min Rain = 0
KHE1 150438Z 16016KT 06/01 A3019 RMK A01 T00570011  RH  072%=      5-min Rain = 0
KHE1 150439Z 16015KT 06/01 A3019 RMK A01 T00580011  RH  072%=      5-min Rain = 0
KHE1 150440Z 16017KT 06/01 A3019 RMK A01 T00580012  RH  072%=      5-min Rain = 0
KHE1 150441Z 16015KT 06/01 A3019 RMK A01 T00580012  RH  072%=      5-min Rain = 0
KHE1 150442Z 16015KT 06/01 A3019 RMK A01 T00570012  RH  073%=      5-min Rain = 0
KHE1 150443Z 16015KT 06/01 A3019 RMK A01 T00560012  RH  073%=      5-min Rain = 0
KHE1 150444Z 16015KT 06/01 A3019 RMK A01 T00560012  RH  073%=      5-min Rain = 0
KHE1 150445Z 16015KT 06/01 A3019 RMK A01 T00560012  RH  073%=      5-min Rain = 0
KHE1 150446Z 16015KT 06/01 A3019 RMK A01 T00560012  RH  073%=      5-min Rain = 0
KHE1 150447Z 16015KT 06/01 A3019 RMK A01 T00570012  RH  073%=      5-min Rain = 0
KHE1 150448Z 16014KT 06/01 A3019 RMK A01 T00560012  RH  073%=      5-min Rain = 0
KHE1 150449Z 16013KT 06/01 A3019 RMK A01 T00570012  RH  073%=      5-min Rain = 0
KHE1 150450Z 16014KT 06/01 A3019 RMK A01 T00560012  RH  073%=      5-min Rain = 0
KHE1 150451Z 16014KT 06/01 A3019 RMK A01 T00560012  RH  074%=      5-min Rain = 0
KHE1 150452Z 16014KT 06/01 A3019 RMK A01 T00550012  RH  074%=      5-min Rain = 0
KHE1 150453Z 16015KT 06/01 A3019 RMK A01 T00560012  RH  074%=      5-min Rain = 0
KHE1 150454Z 16015KT 06/01 A3019 RMK A01 T00560012  RH  074%=      5-min Rain = 0
KHE1 150455Z 16015KT 06/01 A3019 RMK A01 T00560012  RH  074%=      5-min Rain = 0
KHE1 150456Z 16015KT 06/01 A3019 RMK A01 T00560012  RH  074%=      5-min Rain = 0
KHE1 150457Z 16015KT 06/01 A3019 RMK A01 T00560012  RH  073%=      5-min Rain = 0
KHE1 150458Z 16015KT 06/01 A3019 RMK A01 T00560012  RH  073%=      5-min Rain = 0
KHE1 150459Z 16013KT 06/01 A3019 RMK A01 T00560012  RH  073%=      5-min Rain = 0
KHE1 150500Z 16015KT 06/01 A3018 RMK A01 T00550012  RH  074%=      5-min Rain = 0
KHE1 150501Z 16015KT 06/01 A3018 RMK A01 T00560012  RH  074%=      5-min Rain = 0
KHE1 150502Z 16014KT 06/01 A3018 RMK A01 T00560013  RH  073%=      5-min Rain = 0
KHE1 150503Z 16014KT 06/01 A3018 RMK A01 T00560013  RH  074%=      5-min Rain = 0
KHE1 150504Z 16013KT 06/01 A3018 RMK A01 T00560012  RH  074%=      5-min Rain = 0
KHE1 150505Z 16014KT 06/01 A3018 RMK A01 T00550013  RH  074%=      5-min Rain = 0
KHE1 150506Z 16013KT 06/01 A3018 RMK A01 T00550012  RH  074%=      5-min Rain = 0
KHE1 150507Z 16015KT 06/01 A3018 RMK A01 T00560013  RH  074%=      5-min Rain = 0
KHE1 150508Z 16015KT 06/01 A3018 RMK A01 T00560013  RH  074%=      5-min Rain = 0
KHE1 150509Z 16014KT 06/01 A3018 RMK A01 T00560012  RH  073%=      5-min Rain = 0
KHE1 150510Z 16016KT 06/01 A3018 RMK A01 T00560012  RH  073%=      5-min Rain = 0
KHE1 150511Z 16015KT 06/01 A3018 RMK A01 T00560012  RH  073%=      5-min Rain = 0
KHE1 150512Z 16016KT 06/01 A3018 RMK A01 T00560012  RH  073%=      5-min Rain = 0
KHE1 150513Z 16015KT 06/01 A3018 RMK A01 T00570012  RH  073%=      5-min Rain = 0
KHE1 150514Z 16016KT 06/01 A3018 RMK A01 T00570013  RH  073%=      5-min Rain = 0
KHE1 150515Z 16016KT 06/01 A3018 RMK A01 T00560012  RH  073%=      5-min Rain = 0
KHE1 150516Z 16016KT 06/01 A3018 RMK A01 T00560012  RH  073%=      5-min Rain = 0
KHE1 150517Z 16015KT 06/01 A3018 RMK A01 T00560012  RH  073%=      5-min Rain = 0
KHE1 150518Z 16017KT 06/01 A3018 RMK A01 T00560012  RH  073%=      5-min Rain = 0
KHE1 150519Z 15016KT 06/01 A3018 RMK A01 T00560012  RH  073%=      5-min Rain = 0
KHE1 150520Z 16016KT 06/01 A3018 RMK A01 T00560012  RH  073%=      5-min Rain = 0
KHE1 150521Z 16016KT 06/01 A3018 RMK A01 T00560012  RH  074%=      5-min Rain = 0
KHE1 150522Z 16016KT 06/01 A3018 RMK A01 T00560013  RH  074%=      5-min Rain = 0
KHE1 150523Z 16016KT 06/01 A3018 RMK A01 T00550012  RH  074%=      5-min Rain = 0
KHE1 150524Z 16016KT 06/01 A3018 RMK A01 T00550012  RH  074%=      5-min Rain = 0
KHE1 150525Z 16016KT 06/01 A3018 RMK A01 T00560012  RH  074%=      5-min Rain = 0
KHE1 150526Z 16015KT 06/01 A3018 RMK A01 T00550012  RH  074%=      5-min Rain = 0
KHE1 150527Z 16016KT 06/01 A3018 RMK A01 T00550012  RH  074%=      5-min Rain = 0
KHE1 150528Z 16015KT 06/01 A3018 RMK A01 T00560013  RH  074%=      5-min Rain = 0
KHE1 150529Z 16016KT 06/01 A3018 RMK A01 T00550012  RH  074%=      5-min Rain = 0
KHE1 150530Z 16016KT 06/01 A3017 RMK A01 T00550012  RH  074%=      5-min Rain = 0
KHE1 150531Z 16016KT 06/01 A3017 RMK A01 T00560012  RH  073%=      5-min Rain = 0
KHE1 150532Z 16015KT 06/01 A3018 RMK A01 T00560012  RH  073%=      5-min Rain = 0
KHE1 150533Z 16014KT 06/01 A3018 RMK A01 T00560013  RH  073%=      5-min Rain = 0
KHE1 150534Z 16015KT 06/01 A3018 RMK A01 T00550012  RH  074%=      5-min Rain = 0
KHE1 150535Z 16015KT 06/01 A3018 RMK A01 T00550013  RH  074%=      5-min Rain = 0
KHE1 150536Z 16014KT 06/01 A3018 RMK A01 T00550013  RH  074%=      5-min Rain = 0
KHE1 150537Z 16015KT 05/01 A3017 RMK A01 T00540013  RH  075%=      5-min Rain = 0
KHE1 150538Z 16016KT 05/01 A3017 RMK A01 T00540012  RH  075%=      5-min Rain = 0
KHE1 150539Z 16014G19KT 05/01 A3017 RMK A01 T00540013  RH  075%=      5-min Rain = 0
KHE1 150540Z 16015KT 05/01 A3017 RMK A01 T00540013  RH  075%=      5-min Rain = 0
KHE1 150541Z 15015KT 05/01 A3017 RMK A01 T00540013  RH  075%=      5-min Rain = 0
KHE1 150542Z 16014KT 05/01 A3017 RMK A01 T00530013  RH  075%=      5-min Rain = 0
KHE1 150543Z 16015KT 05/01 A3017 RMK A01 T00530013  RH  075%=      5-min Rain = 0
KHE1 150544Z 16015KT 05/01 A3017 RMK A01 T00530013  RH  075%=      5-min Rain = 0
KHE1 150545Z 16015KT 05/01 A3017 RMK A01 T00520013  RH  075%=      5-min Rain = 0
KHE1 150546Z 16015KT 05/01 A3017 RMK A01 T00530013  RH  075%=      5-min Rain = 0
KHE1 150547Z 16015KT 05/01 A3017 RMK A01 T00530012  RH  075%=      5-min Rain = 0
KHE1 150548Z 16015KT 05/01 A3017 RMK A01 T00530012  RH  075%=      5-min Rain = 0
KHE1 150549Z 16014KT 05/01 A3017 RMK A01 T00520013  RH  076%=      5-min Rain = 0
KHE1 150550Z 16014KT 05/01 A3017 RMK A01 T00520013  RH  076%=      5-min Rain = 0
KHE1 150551Z 16015KT 05/01 A3017 RMK A01 T00520013  RH  076%=      5-min Rain = 0
KHE1 150552Z 16015KT 05/01 A3017 RMK A01 T00520013  RH  076%=      5-min Rain = 0
KHE1 150553Z 16015KT 05/01 A3016 RMK A01 T00510013  RH  076%=      5-min Rain = 0
KHE1 150554Z 16015KT 05/01 A3016 RMK A01 T00510013  RH  076%=      5-min Rain = 0
KHE1 150555Z 16015KT 05/01 A3016 RMK A01 T00510012  RH  076%=      5-min Rain = 0
KHE1 150556Z 16013KT 05/01 A3016 RMK A01 T00510012  RH  076%=      5-min Rain = 0
KHE1 150557Z 16015KT 05/01 A3016 RMK A01 T00510013  RH  076%=      5-min Rain = 0
KHE1 150558Z 16015KT 05/01 A3016 RMK A01 T00500013  RH  077%=      5-min Rain = 0
KHE1 150559Z 16015KT 05/01 A3016 RMK A01 T00510013  RH  077%=      5-min Rain = 0

Page generated in 0.1304 seconds.